GW1066 Weather Reports


time (UTC)temp
F
wind
direction
speed
knots
gust
knots
rain 1hr
in
rain 24hr
in
rain mn
in
humidity
%
barometer
mb
20260508073303 58 167 0.9 3.5 0.00 0.00 0.00 68 1017.6
20260508073203 58 174 0.9 5.2 0.00 0.00 0.00 68 1017.6
20260508073124 58 178 0.9 5.2 0.00 0.00 0.00 69 1017.6
20260508073003 58 183 0.9 5.2 0.00 0.00 0.00 69 1017.5
20260508072903 58 184 0.9 5.2 0.00 0.00 0.00 69 1017.5
20260508072804 58 184 0.9 5.2 0.00 0.00 0.00 69 1017.5
20260508072703 57 184 0.9 5.2 0.00 0.00 0.00 70 1017.5
20260508072603 57 179 0.9 5.2 0.00 0.00 0.00 70 1017.7
20260508072503 57 177 0.9 5.2 0.00 0.00 0.00 70 1017.6
20260508072403 57 175 0.9 6.1 0.00 0.00 0.00 70 1017.5
20260508072307 57 176 0.9 6.1 0.00 0.00 0.00 70 1017.7
20260508072203 57 171 0.9 6.1 0.00 0.00 0.00 69 1017.5
20260508072103 57 171 0.9 6.1 0.00 0.00 0.00 70 1017.6
20260508072003 57 166 0.9 6.1 0.00 0.00 0.00 70 1017.6
20260508071903 57 164 0.0 6.1 0.00 0.00 0.00 70 1017.5
20260508071803 57 164 0.9 6.1 0.00 0.00 0.00 70 1017.5
20260508071703 57 167 0.9 6.1 0.00 0.00 0.00 70 1017.6
20260508071603 57 168 0.9 6.1 0.00 0.00 0.00 70 1017.6
20260508071503 57 168 0.9 6.1 0.00 0.00 0.00 70 1017.4
20260508071404 57 173 0.0 2.6 0.00 0.00 0.00 70 1017.4
20260508071303 57 173 0.0 2.6 0.00 0.00 0.00 70 1017.4
20260508071203 57 172 0.0 2.6 0.00 0.00 0.00 70 1017.5
20260508071103 57 177 0.0 5.2 0.00 0.00 0.00 70 1017.4
20260508071024 57 176 0.0 5.2 0.00 0.00 0.00 70 1017.5
20260508070903 56 177 0.0 5.2 0.00 0.00 0.00 71 1017.6
20260508070803 56 178 0.0 5.2 0.00 0.00 0.00 71 1017.4
20260508070724 56 178 0.0 5.2 0.00 0.00 0.00 70 1017.5
20260508070603 56 173 0.0 5.2 0.00 0.00 0.00 71 1017.5
20260508070503 56 179 0.9 5.2 0.00 0.00 0.00 71 1017.5
20260508070403 56 186 0.9 5.2 0.00 0.00 0.00 71 1017.5
20260508070303 56 185 0.9 5.2 0.00 0.00 0.00 71 1017.6
20260508070224 56 186 0.9 5.2 0.00 0.00 0.00 71 1017.5
20260508070004 56 184 0.9 5.2 0.00 0.00 0.00 71 1017.3
20260508065903 56 182 0.9 5.2 0.00 0.00 0.00 72 1017.2
20260508065824 56 183 0.9 5.2 0.00 0.00 0.00 72 1017.4
20260508065724 56 183 0.9 5.2 0.00 0.00 0.00 72 1017.2
20260508065603 56 185 0.9 5.2 0.00 0.00 0.00 72 1017.4
20260508065503 56 180 0.0 3.5 0.00 0.00 0.00 71 1017.6
20260508065403 56 173 0.0 2.6 0.00 0.00 0.00 72 1017.4
20260508065306 56 175 0.9 3.5 0.00 0.00 0.00 72 1017.0
20260508065203 56 173 0.9 3.5 0.00 0.00 0.00 72 1017.4
20260508065124 56 172 0.9 3.5 0.00 0.00 0.00 71 1017.3
20260508065003 55 173 0.9 3.5 0.00 0.00 0.00 72 1017.3
20260508064924 55 170 0.9 3.5 0.00 0.00 0.00 72 1017.3
20260508064803 55 168 0.9 3.5 0.00 0.00 0.00 72 1017.1
20260508064703 55 169 0.9 3.5 0.00 0.00 0.00 72 1017.1
20260508064603 55 168 0.9 3.5 0.00 0.00 0.00 72 1017.1
20260508064504 55 166 0.9 3.5 0.00 0.00 0.00 72 1017.2
20260508064403 55 166 0.9 3.5 0.00 0.00 0.00 72 1017.5
20260508064303 55 162 0.0 2.6 0.00 0.00 0.00 72 1017.4
20260508064203 55 162 0.0 2.6 0.00 0.00 0.00 72 1017.4
20260508064103 55 160 0.0 2.6 0.00 0.00 0.00 73 1017.2
20260508064025 55 161 0.9 3.5 0.00 0.00 0.00 73 1017.3
20260508063924 55 164 0.9 3.5 0.00 0.00 0.00 73 1017.2
20260508063803 55 165 0.9 3.5 0.00 0.00 0.00 73 1017.2
20260508063703 55 165 0.9 3.5 0.00 0.00 0.00 73 1017.5
20260508063603 55 162 0.9 3.5 0.00 0.00 0.00 73 1017.4
20260508063503 55 162 0.9 3.5 0.00 0.00 0.00 73 1017.4
20260508063403 55 162 0.9 3.5 0.00 0.00 0.00 73 1017.4
20260508063303 55 163 0.9 3.5 0.00 0.00 0.00 73 1017.1
20260508063224 55 163 0.9 3.5 0.00 0.00 0.00 73 1017.4
20260508063124 54 164 0.9 3.5 0.00 0.00 0.00 73 1017.4
20260508063024 54 167 0.9 3.5 0.00 0.00 0.00 73 1017.3
20260508062903 54 176 0.9 5.2 0.00 0.00 0.00 73 1017.3
20260508062803 54 178 0.9 5.2 0.00 0.00 0.00 74 1017.4
20260508062703 54 177 0.9 5.2 0.00 0.00 0.00 73 1017.6
20260508062624 54 181 0.9 5.2 0.00 0.00 0.00 74 1017.4
20260508062503 54 184 0.9 5.2 0.00 0.00 0.00 74 1017.2
20260508062424 54 185 0.9 5.2 0.00 0.00 0.00 74 1017.4
20260508062306 54 191 0.9 5.2 0.00 0.00 0.00 74 1017.3
20260508062203 54 188 0.9 5.2 0.00 0.00 0.00 74 1017.2
20260508062103 54 204 0.9 5.2 0.00 0.00 0.00 74 1017.4
20260508062003 54 191 0.9 5.2 0.00 0.00 0.00 74 1017.2
20260508061903 54 179 0.0 5.2 0.00 0.00 0.00 74 1017.2
20260508061803 54 175 0.9 5.2 0.00 0.00 0.00 74 1017.5
20260508061703 53 174 0.9 5.2 0.00 0.00 0.00 75 1017.3
20260508061624 53 174 0.9 5.2 0.00 0.00 0.00 75 1017.3
20260508061503 53 174 0.9 5.2 0.00 0.00 0.00 75 1017.3
20260508061403 53 173 0.0 5.2 0.00 0.00 0.00 75 1017.5
20260508061303 53 173 0.0 5.2 0.00 0.00 0.00 75 1017.5
20260508061203 53 174 0.0 5.2 0.00 0.00 0.00 75 1017.4
20260508061103 53 175 0.0 5.2 0.00 0.00 0.00 75 1017.4
20260508061024 53 175 0.0 5.2 0.00 0.00 0.00 75 1017.3
20260508060903 53 179 0.9 5.2 0.00 0.00 0.00 75 1017.3
20260508060803 53 180 0.0 5.2 0.00 0.00 0.00 75 1017.5
20260508060703 53 181 0.0 5.2 0.00 0.00 0.00 75 1017.4
20260508060624 53 180 0.0 5.2 0.00 0.00 0.00 75 1017.3
20260508060503 53 180 0.0 5.2 0.00 0.00 0.00 75 1017.2
20260508060403 53 180 0.9 5.2 0.00 0.00 0.00 75 1017.6
20260508060324 53 180 0.9 5.2 0.00 0.00 0.00 75 1017.3
20260508060224 53 180 0.9 5.2 0.00 0.00 0.00 76 1017.5
20260508060003 53 175 0.0 2.6 0.00 0.00 0.00 75 1017.6
20260508055904 53 170 0.0 2.6 0.00 0.00 0.00 75 1017.4
20260508055824 53 170 0.0 2.6 0.00 0.00 0.00 75 1017.4
20260508055703 53 180 0.0 2.6 0.00 0.00 0.00 75 1017.4
20260508055603 53 182 0.0 2.6 0.00 0.00 0.00 76 1017.5
20260508055503 53 182 0.0 2.6 0.00 0.00 0.00 76 1017.2
20260508055424 53 184 0.9 3.5 0.00 0.00 0.00 75 1017.3
20260508055306 53 186 0.9 3.5 0.00 0.00 0.00 76 1017.2
20260508055203 53 187 0.9 3.5 0.00 0.00 0.00 76 1017.4
20260508055103 53 182 0.9 5.2 0.00 0.00 0.00 76 1017.4
20260508055003 53 185 0.9 5.2 0.00 0.00 0.00 76 1017.2
20260508054903 53 187 0.9 5.2 0.00 0.00 0.00 76 1017.2
20260508054803 53 186 0.9 5.2 0.00 0.00 0.00 76 1017.2
20260508054703 53 186 0.9 5.2 0.00 0.00 0.00 76 1017.4
20260508054603 53 184 0.9 5.2 0.00 0.00 0.00 76 1017.2
20260508054503 53 187 0.9 5.2 0.00 0.00 0.00 76 1017.3
20260508054403 53 185 0.9 5.2 0.00 0.00 0.00 75 1017.2
20260508054303 53 184 0.9 5.2 0.00 0.00 0.00 75 1017.4
20260508054203 53 183 0.9 5.2 0.00 0.00 0.00 75 1017.2
20260508054103 53 189 0.0 5.2 0.00 0.00 0.00 76 1017.2
20260508054003 53 187 0.0 5.2 0.00 0.00 0.00 76 1017.2
20260508053903 53 178 0.0 5.2 0.00 0.00 0.00 75 1017.4
20260508053803 53 176 0.0 5.2 0.00 0.00 0.00 75 1017.4
20260508053724 53 176 0.0 5.2 0.00 0.00 0.00 76 1017.2
20260508053603 53 177 0.0 5.2 0.00 0.00 0.00 75 1017.2
20260508053503 53 167 0.0 2.6 0.00 0.00 0.00 75 1017.3
20260508053403 53 166 0.0 2.6 0.00 0.00 0.00 75 1017.2
20260508053303 53 164 0.0 2.6 0.00 0.00 0.00 75 1017.2
20260508053203 53 165 0.0 2.6 0.00 0.00 0.00 76 1017.3
20260508053103 53 170 0.0 2.6 0.00 0.00 0.00 75 1017.3
20260508053003 53 173 0.0 2.6 0.00 0.00 0.00 76 1017.3
20260508052903 53 176 0.0 2.6 0.00 0.00 0.00 76 1017.2
20260508052803 53 179 0.0 2.6 0.00 0.00 0.00 75 1017.0
20260508052703 53 177 0.0 2.6 0.00 0.00 0.00 76 1017.2
20260508052603 52 176 0.0 2.6 0.00 0.00 0.00 76 1017.0
20260508052503 52 176 0.0 2.6 0.00 0.00 0.00 76 1017.3
20260508052403 52 180 0.9 2.6 0.00 0.00 0.00 76 1017.2
20260508052306 52 179 0.9 2.6 0.00 0.00 0.00 76 1017.1
20260508052203 52 179 0.9 2.6 0.00 0.00 0.00 76 1017.3
20260508052103 52 176 0.9 2.6 0.00 0.00 0.00 76 1017.4
20260508052003 52 172 0.9 5.2 0.00 0.00 0.00 76 1017.2
20260508051903 52 172 0.9 5.2 0.00 0.00 0.00 76 1017.3
20260508051803 52 171 0.9 5.2 0.00 0.00 0.00 76 1017.2
20260508051703 52 174 0.9 5.2 0.00 0.00 0.00 76 1017.2
20260508051603 52 174 0.9 5.2 0.00 0.00 0.00 76 1017.2
20260508051503 52 173 0.9 5.2 0.00 0.00 0.00 76 1017.3
20260508051424 52 172 0.9 5.2 0.00 0.00 0.00 76 1017.3
20260508051324 52 174 0.9 5.2 0.00 0.00 0.00 76 1017.3
20260508051203 52 176 0.9 5.2 0.00 0.00 0.00 76 1017.2
20260508051124 53 177 0.9 5.2 0.00 0.00 0.00 76 1017.3
20260508051003 53 180 0.9 5.2 0.00 0.00 0.00 75 1017.3
20260508050903 53 182 0.9 5.2 0.00 0.00 0.00 76 1017.2
20260508050803 53 185 0.9 5.2 0.00 0.00 0.00 75 1017.4
20260508050703 53 185 0.0 5.2 0.00 0.00 0.00 75 1017.2
20260508050603 53 181 0.9 5.2 0.00 0.00 0.00 75 1017.2
20260508050524 53 182 0.9 5.2 0.00 0.00 0.00 76 1017.2
20260508050403 52 180 0.9 5.2 0.00 0.00 0.00 76 1017.1
20260508050303 52 179 0.9 5.2 0.00 0.00 0.00 76 1017.3
20260508050203 52 181 0.9 5.2 0.00 0.00 0.00 76 1017.4
20260508050103 52 180 0.9 3.5 0.00 0.00 0.00 77 1017.3
20260508050003 52 179 0.9 3.5 0.00 0.00 0.00 77 1017.3
20260508045903 52 178 0.9 3.5 0.00 0.00 0.00 77 1017.3
20260508045803 52 175 0.9 3.5 0.00 0.00 0.00 77 1017.2
20260508045703 52 173 0.9 3.5 0.00 0.00 0.00 77 1017.2
20260508045603 52 176 0.9 3.5 0.00 0.00 0.00 77 1017.4
20260508045503 52 173 0.9 3.5 0.00 0.00 0.00 77 1017.2
20260508045403 52 174 0.0 3.5 0.00 0.00 0.00 77 1017.2
20260508045306 51 174 0.0 3.5 0.00 0.00 0.00 77 1017.1
20260508045203 51 166 0.0 2.6 0.00 0.00 0.00 77 1017.3
20260508045103 51 170 0.0 2.6 0.00 0.00 0.00 77 1017.2
20260508045003 51 178 0.0 2.6 0.00 0.00 0.00 77 1017.3
20260508044903 51 189 0.0 2.6 0.00 0.00 0.00 77 1017.1
20260508044803 51 190 0.0 2.6 0.00 0.00 0.00 77 1017.4
20260508044724 51 191 0.0 2.6 0.00 0.00 0.00 77 1017.2
20260508044624 51 197 0.0 2.6 0.00 0.00 0.00 77 1017.1
20260508044503 51 193 0.0 2.6 0.00 0.00 0.00 77 1017.3
20260508044403 51 189 0.0 2.6 0.00 0.00 0.00 77 1017.4
20260508044303 51 188 0.0 2.6 0.00 0.00 0.00 78 1017.0
20260508044224 51 188 0.0 2.6 0.00 0.00 0.00 77 1017.0
20260508044103 51 188 0.0 2.6 0.00 0.00 0.00 77 1017.0
20260508044004 51 181 0.0 1.7 0.00 0.00 0.00 77 1017.1
20260508043903 51 174 0.0 1.7 0.00 0.00 0.00 77 1017.2
20260508043806 51 172 0.0 2.6 0.00 0.00 0.00 77 1017.1
20260508043703 51 173 0.0 2.6 0.00 0.00 0.00 77 1017.0
20260508043603 51 172 0.9 6.1 0.00 0.00 0.00 77 1017.2
20260508043503 51 171 0.9 6.1 0.00 0.00 0.00 77 1017.2
20260508043403 51 171 0.0 6.1 0.00 0.00 0.00 77 1017.2
20260508043303 51 172 0.0 6.1 0.00 0.00 0.00 77 1017.0
20260508043203 51 171 0.0 6.1 0.00 0.00 0.00 77 1016.9
20260508043103 51 171 0.0 6.1 0.00 0.00 0.00 77 1017.1
20260508043003 51 172 0.0 6.1 0.00 0.00 0.00 77 1017.1
20260508042903 51 175 0.9 6.1 0.00 0.00 0.00 77 1017.1
20260508042803 51 174 0.0 6.1 0.00 0.00 0.00 77 1017.0
20260508042703 51 173 0.0 6.1 0.00 0.00 0.00 77 1017.1
20260508042624 51 172 0.0 6.1 0.00 0.00 0.00 76 1016.9
20260508042503 51 179 0.0 2.6 0.00 0.00 0.00 77 1017.0
20260508042403 51 175 0.0 2.6 0.00 0.00 0.00 77 1017.0
20260508042306 51 170 0.0 2.6 0.00 0.00 0.00 77 1017.0
20260508042203 51 170 0.0 2.6 0.00 0.00 0.00 77 1017.0
20260508042103 51 170 0.0 2.6 0.00 0.00 0.00 77 1016.9
20260508042003 51 170 0.0 2.6 0.00 0.00 0.00 77 1016.9
20260508041903 51 165 0.0 2.6 0.00 0.00 0.00 77 1016.9
20260508041824 51 165 0.0 2.6 0.00 0.00 0.00 77 1016.9
20260508041703 51 165 0.0 2.6 0.00 0.00 0.00 77 1016.8
20260508041603 51 165 0.0 2.6 0.00 0.00 0.00 78 1016.8
20260508041504 51 165 0.0 2.6 0.00 0.00 0.00 77 1017.0
20260508041403 51 166 0.0 2.6 0.00 0.00 0.00 77 1017.0
20260508041303 51 172 0.0 2.6 0.00 0.00 0.00 77 1016.9
20260508041203 50 172 0.0 2.6 0.00 0.00 0.00 78 1017.2
20260508041103 50 172 0.0 2.6 0.00 0.00 0.00 78 1016.9
20260508041003 50 173 0.0 2.6 0.00 0.00 0.00 78 1016.9
20260508040903 50 176 0.0 2.6 0.00 0.00 0.00 78 1016.9
20260508040803 50 174 0.0 2.6 0.00 0.00 0.00 78 1017.0
20260508040703 50 173 0.0 2.6 0.00 0.00 0.00 78 1016.9
20260508040603 50 172 0.0 2.6 0.00 0.00 0.00 78 1016.8
20260508040503 50 169 0.0 2.6 0.00 0.00 0.00 78 1016.9
20260508040403 50 167 0.0 2.6 0.00 0.00 0.00 78 1016.9
20260508040303 50 167 0.0 2.6 0.00 0.00 0.00 78 1017.0
20260508040203 50 167 0.0 2.6 0.00 0.00 0.00 78 1016.8
20260508040003 50 166 0.0 2.6 0.00 0.00 0.00 78 1016.9
20260508035903 50 163 0.0 2.6 0.00 0.00 0.00 78 1017.0
20260508035803 50 161 0.0 2.6 0.00 0.00 0.00 78 1016.7
20260508035703 50 159 0.0 1.7 0.00 0.00 0.00 78 1016.8
20260508035603 50 159 0.0 1.7 0.00 0.00 0.00 78 1016.8
20260508035503 50 161 0.0 1.7 0.00 0.00 0.00 78 1016.9
20260508035403 50 164 0.0 1.7 0.00 0.00 0.00 78 1016.9
20260508035324 50 166 0.0 5.2 0.00 0.00 0.00 78 1016.5
20260508035203 50 169 0.0 5.2 0.00 0.00 0.00 78 1016.9
20260508035103 50 169 0.0 5.2 0.00 0.00 0.00 78 1016.8
20260508035003 50 171 0.0 5.2 0.00 0.00 0.00 78 1016.9
20260508034903 50 171 0.0 5.2 0.00 0.00 0.00 78 1016.8
20260508034803 50 171 0.0 5.2 0.00 0.00 0.00 78 1016.7
20260508034703 50 173 0.0 5.2 0.00 0.00 0.00 78 1016.4
20260508034603 50 170 0.0 5.2 0.00 0.00 0.00 78 1016.7
20260508034503 50 170 0.0 5.2 0.00 0.00 0.00 78 1016.8
20260508034403 50 170 0.0 5.2 0.00 0.00 0.00 78 1016.7
20260508034324 50 171 0.0 1.7 0.00 0.00 0.00 78 1016.7
20260508034203 50 164 0.0 1.7 0.00 0.00 0.00 78 1016.9
20260508034103 50 164 0.0 1.7 0.00 0.00 0.00 78 1016.8
20260508034025 50 164 0.0 1.7 0.00 0.00 0.00 78 1016.7
20260508033924 50 162 0.0 1.7 0.00 0.00 0.00 78 1016.7
20260508033803 50 162 0.0 1.7 0.00 0.00 0.00 78 1016.8
20260508033703 50 156 0.0 1.7 0.00 0.00 0.00 78 1016.9
20260508033603 50 150 0.0 0.9 0.00 0.00 0.00 78 1016.6
20260508033503 50 150 0.0 0.9 0.00 0.00 0.00 78 1016.6
20260508033403 50 157 0.0 0.9 0.00 0.00 0.00 78 1016.6
20260508033303 50 168 0.0 0.9 0.00 0.00 0.00 78 1016.7
20260508033203 50 173 0.0 0.9 0.00 0.00 0.00 78 1016.6
20260508033103 50 173 0.0 0.9 0.00 0.00 0.00 78 1016.7
20260508033003 50 181 0.0 0.9 0.00 0.00 0.00 78 1016.8
20260508032903 50 181 0.0 0.9 0.00 0.00 0.00 78 1016.8
20260508032803 50 181 0.0 0.9 0.00 0.00 0.00 78 1016.6
20260508032703 50 181 0.0 0.9 0.00 0.00 0.00 78 1016.9
20260508032603 50 173 0.0 1.7 0.00 0.00 0.00 78 1016.7
20260508032503 50 172 0.0 1.7 0.00 0.00 0.00 78 1016.8
20260508032403 50 174 0.0 1.7 0.00 0.00 0.00 78 1016.7
20260508032324 50 172 0.0 1.7 0.00 0.00 0.00 78 1016.6
20260508032203 50 169 0.0 1.7 0.00 0.00 0.00 78 1016.9
20260508032103 50 171 0.0 1.7 0.00 0.00 0.00 78 1016.9
20260508032003 50 170 0.0 1.7 0.00 0.00 0.00 78 1016.7
20260508031924 50 170 0.0 1.7 0.00 0.00 0.00 78 1016.7
20260508031803 50 170 0.0 1.7 0.00 0.00 0.00 78 1016.8
20260508031703 50 170 0.0 1.7 0.00 0.00 0.00 78 1016.8
20260508031624 50 173 0.0 1.7 0.00 0.00 0.00 78 1016.9
20260508031503 50 174 0.0 1.7 0.00 0.00 0.00 78 1016.7
20260508031403 50 170 0.0 1.7 0.00 0.00 0.00 78 1016.7
20260508031303 50 184 0.0 1.7 0.00 0.00 0.00 78 1016.7
20260508031203 50 184 0.0 1.7 0.00 0.00 0.00 78 1016.9
20260508031103 50 181 0.0 1.7 0.00 0.00 0.00 78 1016.8
20260508031003 50 170 0.0 1.7 0.00 0.00 0.00 78 1016.5
20260508030903 50 168 0.0 1.7 0.00 0.00 0.00 78 1016.8
20260508030803 50 168 0.0 1.7 0.00 0.00 0.00 78 1016.7
20260508030703 50 168 0.0 1.7 0.00 0.00 0.00 78 1016.7
20260508030603 50 169 0.0 1.7 0.00 0.00 0.00 78 1016.5
20260508030503 50 169 0.0 1.7 0.00 0.00 0.00 78 1016.5
20260508030424 50 169 0.0 1.7 0.00 0.00 0.00 78 1016.6
20260508030303 50 165 0.0 1.7 0.00 0.00 0.00 78 1016.5
20260508030203 50 165 0.0 1.7 0.00 0.00 0.00 78 1016.3
20260508030103 50 166 0.0 1.7 0.00 0.00 0.00 78 1016.4
20260508030004 50 169 0.0 1.7 0.00 0.00 0.00 78 1016.4
20260508025903 50 170 0.0 1.7 0.00 0.00 0.00 78 1016.4
20260508025824 50 172 0.0 1.7 0.00 0.00 0.00 78 1016.4
20260508025703 50 173 0.0 1.7 0.00 0.00 0.00 78 1016.4
20260508025603 49 171 0.0 0.9 0.00 0.00 0.00 78 1016.5
20260508025503 49 169 0.0 0.9 0.00 0.00 0.00 78 1016.5
20260508025403 49 169 0.0 0.9 0.00 0.00 0.00 78 1016.4
20260508025306 49 169 0.0 0.9 0.00 0.00 0.00 78 1016.5
20260508025203 49 164 0.0 0.9 0.00 0.00 0.00 78 1016.6
20260508025103 49 164 0.0 0.9 0.00 0.00 0.00 78 1016.6
20260508025003 49 161 0.0 0.9 0.00 0.00 0.00 78 1016.5
20260508024903 49 161 0.0 0.9 0.00 0.00 0.00 78 1016.5
20260508024803 49 161 0.0 0.9 0.00 0.00 0.00 78 1016.4
20260508024724 49 161 0.0 0.9 0.00 0.00 0.00 78 1016.4
20260508024603 49 161 0.0 0.9 0.00 0.00 0.00 78 1016.6
20260508024524 49 158 0.0 0.9 0.00 0.00 0.00 78 1016.3
20260508024424 49 160 0.0 1.7 0.00 0.00 0.00 78 1016.4
20260508024324 49 164 0.0 1.7 0.00 0.00 0.00 78 1016.4
20260508024203 49 169 0.0 1.7 0.00 0.00 0.00 78 1016.6
20260508024103 49 169 0.0 1.7 0.00 0.00 0.00 78 1016.3
20260508024003 49 169 0.0 1.7 0.00 0.00 0.00 78 1016.3
20260508023903 49 169 0.0 1.7 0.00 0.00 0.00 78 1016.4
20260508023824 49 169 0.0 1.7 0.00 0.00 0.00 78 1016.4
20260508023724 49 169 0.0 1.7 0.00 0.00 0.00 78 1016.2
20260508023603 49 169 0.0 1.7 0.00 0.00 0.00 78 1016.5
20260508023503 49 171 0.0 0.9 0.00 0.00 0.00 78 1016.3
20260508023403 49 171 0.0 0.9 0.00 0.00 0.00 78 1016.4
20260508023303 49 168 0.0 0.9 0.00 0.00 0.00 79 1016.2
20260508023203 49 168 0.0 0.9 0.00 0.00 0.00 79 1016.5
20260508023103 49 168 0.0 0.9 0.00 0.00 0.00 79 1016.3
20260508023004 49 0 0.0 0.0 0.00 0.00 0.00 79 1016.4
20260508022903 49 0 0.0 0.0 0.00 0.00 0.00 79 1016.4
20260508022824 49 0 0.0 0.0 0.00 0.00 0.00 79 1016.2
20260508022703 49 178 0.0 1.7 0.00 0.00 0.00 79 1016.4
20260508022603 49 178 0.0 1.7 0.00 0.00 0.00 79 1016.4
20260508022503 49 178 0.0 1.7 0.00 0.00 0.00 79 1016.6
20260508022403 49 174 0.0 2.6 0.00 0.00 0.00 79 1016.3
20260508022306 49 174 0.0 2.6 0.00 0.00 0.00 79 1016.4
20260508022203 49 174 0.0 2.6 0.00 0.00 0.00 79 1016.5
20260508022103 49 174 0.0 2.6 0.00 0.00 0.00 79 1016.3
20260508022003 49 174 0.0 2.6 0.00 0.00 0.00 79 1016.5
20260508021924 49 174 0.0 2.6 0.00 0.00 0.00 79 1016.4
20260508021803 49 176 0.0 2.6 0.00 0.00 0.00 79 1016.6
20260508021724 49 175 0.0 2.6 0.00 0.00 0.00 79 1016.6
20260508021603 49 175 0.0 2.6 0.00 0.00 0.00 79 1016.3
20260508021524 49 175 0.0 2.6 0.00 0.00 0.00 79 1016.5
20260508021404 49 178 0.0 1.7 0.00 0.00 0.00 79 1016.5
20260508021303 49 180 0.0 1.7 0.00 0.00 0.00 79 1016.4
20260508021224 49 169 0.0 1.7 0.00 0.00 0.00 79 1016.4
20260508021103 50 168 0.0 1.7 0.00 0.00 0.00 79 1016.2
20260508021003 50 169 0.0 1.7 0.00 0.00 0.00 79 1016.5
20260508020903 50 169 0.0 1.7 0.00 0.00 0.00 79 1016.2
20260508020824 50 167 0.0 1.7 0.00 0.00 0.00 79 1016.4
20260508020703 50 163 0.0 1.7 0.00 0.00 0.00 79 1016.3
20260508020603 50 163 0.0 1.7 0.00 0.00 0.00 79 1016.4
20260508020503 50 163 0.0 1.7 0.00 0.00 0.00 79 1016.3
20260508020403 50 165 0.0 1.7 0.00 0.00 0.00 79 1016.5
20260508020324 50 165 0.0 1.7 0.00 0.00 0.00 79 1016.5
20260508020203 50 167 0.0 1.7 0.00 0.00 0.00 79 1016.4
20260508020103 50 166 0.0 2.6 0.00 0.00 0.00 79 1016.4
20260508020003 50 165 0.0 2.6 0.00 0.00 0.00 79 1016.3
20260508015903 50 164 0.0 2.6 0.00 0.00 0.00 79 1016.5
20260508015824 50 164 0.0 2.6 0.00 0.00 0.00 79 1016.5
20260508015703 50 165 0.0 2.6 0.00 0.00 0.00 79 1016.6
20260508015603 50 166 0.0 2.6 0.00 0.00 0.00 78 1016.4
20260508015524 50 166 0.0 2.6 0.00 0.00 0.00 79 1016.7
20260508015403 50 170 0.0 2.6 0.00 0.00 0.00 79 1016.7
20260508015305 50 168 0.0 2.6 0.00 0.00 0.00 79 1016.4
20260508015203 50 170 0.0 2.6 0.00 0.00 0.00 79 1016.4
20260508015103 50 171 0.0 2.6 0.00 0.00 0.00 79 1016.5
20260508015003 50 170 0.0 2.6 0.00 0.00 0.00 79 1016.5
20260508014903 50 170 0.0 2.6 0.00 0.00 0.00 79 1016.7
20260508014803 50 169 0.0 2.6 0.00 0.00 0.00 79 1016.4
20260508014703 50 170 0.0 2.6 0.00 0.00 0.00 79 1016.5
20260508014624 50 170 0.0 2.6 0.00 0.00 0.00 79 1016.6
20260508014503 50 170 0.0 2.6 0.00 0.00 0.00 79 1016.8
20260508014403 50 166 0.0 2.6 0.00 0.00 0.00 79 1016.6
20260508014324 50 168 0.0 2.6 0.00 0.00 0.00 79 1016.6
20260508014203 50 169 0.0 2.6 0.00 0.00 0.00 79 1016.6
20260508014103 50 168 0.0 2.6 0.00 0.00 0.00 79 1016.7
20260508014003 50 169 0.0 2.6 0.00 0.00 0.00 79 1016.4
20260508013903 50 171 0.0 1.7 0.00 0.00 0.00 79 1016.6
20260508013824 50 172 0.0 1.7 0.00 0.00 0.00 79 1016.7
20260508013703 50 171 0.0 1.7 0.00 0.00 0.00 79 1016.7
20260508013603 50 171 0.0 1.7 0.00 0.00 0.00 79 1016.8
20260508013503 50 171 0.0 1.7 0.00 0.00 0.00 79 1016.6
20260508013403 50 176 0.0 1.7 0.00 0.00 0.00 79 1016.7
20260508013303 50 173 0.0 1.7 0.00 0.00 0.00 79 1016.7
20260508013204 50 173 0.0 1.7 0.00 0.00 0.00 79 1016.7
20260508013124 50 173 0.0 1.7 0.00 0.00 0.00 79 1016.5
20260508013003 50 173 0.0 1.7 0.00 0.00 0.00 79 1016.8
20260508012903 50 173 0.0 1.7 0.00 0.00 0.00 79 1016.4
20260508012803 50 0 0.0 0.0 0.00 0.00 0.00 79 1016.7
20260508012703 50 0 0.0 0.0 0.00 0.00 0.00 79 1016.6
20260508012603 50 0 0.0 0.0 0.00 0.00 0.00 79 1016.5
20260508012504 50 0 0.0 0.0 0.00 0.00 0.00 79 1016.9
20260508012403 50 0 0.0 0.0 0.00 0.00 0.00 79 1016.7
20260508012307 50 158 0.0 2.6 0.00 0.00 0.00 79 1016.8
20260508012203 50 163 0.0 2.6 0.00 0.00 0.00 79 1016.7
20260508012124 50 163 0.0 2.6 0.00 0.00 0.00 79 1016.8
20260508012003 50 163 0.0 2.6 0.00 0.00 0.00 79 1016.8
20260508011903 50 163 0.0 2.6 0.00 0.00 0.00 79 1016.6
20260508011803 50 163 0.0 2.6 0.00 0.00 0.00 79 1016.7
20260508011703 50 163 0.0 2.6 0.00 0.00 0.00 79 1016.8
20260508011603 50 163 0.0 2.6 0.00 0.00 0.00 79 1016.9
20260508011503 50 163 0.0 2.6 0.00 0.00 0.00 79 1016.6
20260508011403 50 163 0.0 2.6 0.00 0.00 0.00 79 1016.8
20260508011303 50 180 0.0 0.9 0.00 0.00 0.00 79 1016.7
20260508011224 50 0 0.0 0.0 0.00 0.00 0.00 79 1016.9
20260508011103 49 0 0.0 0.0 0.00 0.00 0.00 79 1016.8
20260508011003 49 0 0.0 0.0 0.00 0.00 0.00 79 1016.8
20260508010903 49 0 0.0 0.0 0.00 0.00 0.00 80 1016.9
20260508010803 49 0 0.0 0.0 0.00 0.00 0.00 80 1016.7
20260508010703 49 0 0.0 0.0 0.00 0.00 0.00 79 1016.8
20260508010603 49 0 0.0 0.0 0.00 0.00 0.00 79 1016.7
20260508010503 49 0 0.0 0.0 0.00 0.00 0.00 79 1016.8
20260508010403 50 0 0.0 0.0 0.00 0.00 0.00 79 1017.0
20260508010303 50 0 0.0 0.0 0.00 0.00 0.00 79 1016.8
20260508010203 50 0 0.0 0.0 0.00 0.00 0.00 79 1016.8
20260508010024 50 0 0.0 0.0 0.00 0.00 0.00 79 1017.0
20260508005903 50 0 0.0 0.0 0.00 0.00 0.00 79 1016.7
20260508005825 49 0 0.0 0.0 0.00 0.00 0.00 79 1016.7
20260508005703 49 0 0.0 0.0 0.00 0.00 0.00 79 1016.7
20260508005603 49 0 0.0 0.0 0.00 0.00 0.00 80 1016.8
20260508005503 49 133 0.0 0.9 0.00 0.00 0.00 80 1016.8
20260508005403 49 123 0.0 0.9 0.00 0.00 0.00 79 1016.8
20260508005324 49 123 0.0 0.9 0.00 0.00 0.00 79 1016.7
20260508005203 49 123 0.0 0.9 0.00 0.00 0.00 79 1016.8
20260508005104 49 123 0.0 0.9 0.00 0.00 0.00 79 1016.8
20260508005024 49 123 0.0 0.9 0.00 0.00 0.00 79 1016.9
20260508004903 49 123 0.0 0.9 0.00 0.00 0.00 79 1017.0
20260508004804 50 123 0.0 0.9 0.00 0.00 0.00 79 1016.8
20260508004704 50 123 0.0 0.9 0.00 0.00 0.00 79 1016.8
20260508004604 50 123 0.0 0.9 0.00 0.00 0.00 79 1017.0
20260508004504 50 106 0.0 0.9 0.00 0.00 0.00 79 1016.9
20260508004404 50 0 0.0 0.0 0.00 0.00 0.00 79 1016.9
20260508004304 50 0 0.0 0.0 0.00 0.00 0.00 79 1016.7
20260508004204 50 0 0.0 0.0 0.00 0.00 0.00 79 1016.8
20260508004104 50 0 0.0 0.0 0.00 0.00 0.00 79 1016.8
20260508004025 50 0 0.0 0.0 0.00 0.00 0.00 79 1016.9
20260508003904 50 0 0.0 0.0 0.00 0.00 0.00 79 1016.9
20260508003804 50 0 0.0 0.0 0.00 0.00 0.00 79 1017.1
20260508003725 50 0 0.0 0.0 0.00 0.00 0.00 79 1016.4
20260508003604 50 0 0.0 0.0 0.00 0.00 0.00 79 1016.9
20260508003504 50 0 0.0 0.0 0.00 0.00 0.00 79 1016.9
20260508003425 50 0 0.0 0.0 0.00 0.00 0.00 79 1017.0
20260508003304 50 0 0.0 0.0 0.00 0.00 0.00 79 1016.8
20260508003204 50 0 0.0 0.0 0.00 0.00 0.00 79 1016.8
20260508003105 50 0 0.0 0.0 0.00 0.00 0.00 79 1017.0
20260508003005 50 0 0.0 0.0 0.00 0.00 0.00 79 1017.1
20260508002904 50 0 0.0 0.0 0.00 0.00 0.00 78 1017.0
20260508002804 50 0 0.0 0.0 0.00 0.00 0.00 78 1017.0
20260508002704 50 0 0.0 0.0 0.00 0.00 0.00 78 1017.1
20260508002625 50 0 0.0 0.0 0.00 0.00 0.00 78 1016.9
20260508002504 50 0 0.0 0.0 0.00 0.00 0.00 78 1016.8
20260508002404 51 162 0.0 1.7 0.00 0.00 0.00 78 1016.8
20260508002306 51 127 0.0 1.7 0.00 0.00 0.00 78 1017.0
20260508002225 51 127 0.0 1.7 0.00 0.00 0.00 78 1017.0
20260508002104 51 127 0.0 1.7 0.00 0.00 0.00 78 1016.9
20260508002004 51 127 0.0 1.7 0.00 0.00 0.00 78 1016.8
20260508001904 51 127 0.0 1.7 0.00 0.00 0.00 78 1016.8
20260508001825 51 127 0.0 1.7 0.00 0.00 0.00 78 1016.8
20260508001725 51 127 0.0 1.7 0.00 0.00 0.00 78 1016.9
20260508001604 51 127 0.0 1.7 0.00 0.00 0.00 77 1016.7
20260508001504 51 127 0.0 1.7 0.00 0.00 0.00 78 1016.7
20260508001404 51 111 0.0 1.7 0.00 0.00 0.00 78 1016.6
20260508001304 51 0 0.0 0.0 0.00 0.00 0.00 78 1017.0
20260508001204 51 0 0.0 0.0 0.00 0.00 0.00 77 1016.8
20260508001104 51 0 0.0 0.0 0.00 0.00 0.00 77 1016.9
20260508001025 51 0 0.0 0.0 0.00 0.00 0.00 77 1016.8
20260508000904 51 0 0.0 0.0 0.00 0.00 0.00 78 1016.7
20260508000804 51 0 0.0 0.0 0.00 0.00 0.00 77 1016.9
20260508000704 51 0 0.0 0.0 0.00 0.00 0.00 77 1016.9
20260508000604 51 0 0.0 0.0 0.00 0.00 0.00 77 1017.0
20260508000525 51 0 0.0 0.0 0.00 0.00 0.00 77 1017.0
20260508000427 51 177 0.0 0.9 0.00 0.00 0.00 77 1016.9
20260508000305 51 186 0.0 0.9 0.00 0.00 0.00 77 1017.1
20260508000227 51 186 0.0 0.9 0.00 0.00 0.00 77 1017.0
20260508000104 51 186 0.0 0.9 0.00 0.00 0.00 77 1016.9
20260508000004 52 186 0.0 0.9 0.00 0.00 0.00 76 1017.0
20260507235925 52 186 0.0 0.9 0.00 0.00 0.00 76 1017.2
20260507235804 52 186 0.0 0.9 0.00 0.00 0.00 77 1017.0
20260507235704 52 186 0.0 0.9 0.00 0.00 0.00 76 1017.0
20260507235604 52 186 0.0 0.9 0.00 0.00 0.00 76 1017.1
20260507235504 52 186 0.0 0.9 0.00 0.00 0.00 76 1017.0
20260507235425 52 186 0.0 0.9 0.00 0.00 0.00 76 1017.1
20260507235306 52 166 0.0 0.9 0.00 0.00 0.00 77 1017.1
20260507235204 52 166 0.0 0.9 0.00 0.00 0.00 77 1017.0
20260507235104 52 166 0.0 0.9 0.00 0.00 0.00 76 1017.1
20260507235004 52 166 0.0 0.9 0.00 0.00 0.00 77 1017.0
20260507234925 52 166 0.0 0.9 0.00 0.00 0.00 76 1017.0
20260507234804 52 166 0.0 0.9 0.00 0.00 0.00 76 1017.1
20260507234704 52 166 0.0 0.9 0.00 0.00 0.00 76 1017.1
20260507234604 52 166 0.0 0.9 0.00 0.00 0.00 76 1017.1
20260507234504 52 166 0.0 0.9 0.00 0.00 0.00 76 1017.0
20260507234404 52 166 0.0 0.9 0.00 0.00 0.00 76 1016.9
20260507234304 52 0 0.0 0.0 0.00 0.00 0.00 76 1017.2
20260507234204 52 0 0.0 0.0 0.00 0.00 0.00 76 1017.2
20260507234104 52 202 0.0 0.9 0.00 0.00 0.00 76 1017.1
20260507234004 52 175 0.0 1.7 0.00 0.00 0.00 76 1016.8
20260507233904 52 175 0.0 1.7 0.00 0.00 0.00 76 1017.1
20260507233805 52 174 0.0 1.7 0.00 0.00 0.00 76 1017.1
20260507233704 52 173 0.0 1.7 0.00 0.00 0.00 76 1017.1
20260507233604 52 173 0.0 1.7 0.00 0.00 0.00 76 1017.2
20260507233504 52 173 0.0 1.7 0.00 0.00 0.00 76 1017.2
20260507233404 52 176 0.0 1.7 0.00 0.00 0.00 76 1017.3
20260507233304 52 178 0.0 1.7 0.00 0.00 0.00 76 1017.1
20260507233205 52 179 0.0 1.7 0.00 0.00 0.00 76 1017.0
20260507233104 52 176 0.0 1.7 0.00 0.00 0.00 76 1017.2
20260507233025 52 177 0.0 1.7 0.00 0.00 0.00 76 1017.2
20260507232904 52 178 0.0 1.7 0.00 0.00 0.00 75 1017.1
20260507232804 52 179 0.0 1.7 0.00 0.00 0.00 76 1017.2
20260507232726 52 179 0.0 1.7 0.00 0.00 0.00 75 1017.2
20260507232604 52 175 0.0 1.7 0.00 0.00 0.00 75 1017.2
20260507232505 52 175 0.0 1.7 0.00 0.00 0.00 75 1017.3
20260507232404 52 173 0.0 1.7 0.00 0.00 0.00 75 1017.1
20260507232306 53 170 0.0 1.7 0.00 0.00 0.00 75 1017.0
20260507232204 53 167 0.0 1.7 0.00 0.00 0.00 75 1017.0
20260507232104 53 167 0.0 1.7 0.00 0.00 0.00 75 1016.9
20260507232004 53 168 0.0 1.7 0.00 0.00 0.00 75 1017.0
20260507231904 53 167 0.0 1.7 0.00 0.00 0.00 75 1017.0
20260507231805 53 161 0.0 1.7 0.00 0.00 0.00 75 1017.0
20260507231704 53 160 0.0 1.7 0.00 0.00 0.00 75 1017.0
20260507231604 53 163 0.0 1.7 0.00 0.00 0.00 75 1016.9
20260507231525 53 163 0.0 1.7 0.00 0.00 0.00 75 1017.2
20260507231404 53 163 0.0 1.7 0.00 0.00 0.00 75 1017.2
20260507231304 53 164 0.0 1.7 0.00 0.00 0.00 75 1017.0
20260507231204 53 168 0.0 2.6 0.00 0.00 0.00 75 1017.2
20260507231125 53 168 0.0 2.6 0.00 0.00 0.00 75 1017.0
20260507231004 53 168 0.0 2.6 0.00 0.00 0.00 75 1017.0
20260507230904 53 169 0.0 2.6 0.00 0.00 0.00 75 1017.3
20260507230804 53 169 0.0 2.6 0.00 0.00 0.00 75 1017.2
20260507230704 53 169 0.0 2.6 0.00 0.00 0.00 75 1017.0
20260507230604 53 170 0.0 2.6 0.00 0.00 0.00 75 1017.0
20260507230525 53 170 0.0 2.6 0.00 0.00 0.00 75 1017.4
20260507230404 53 171 0.0 2.6 0.00 0.00 0.00 75 1017.3
20260507230325 53 173 0.0 2.6 0.00 0.00 0.00 75 1017.2
20260507230204 53 171 0.0 2.6 0.00 0.00 0.00 75 1017.1
20260507230104 53 171 0.0 2.6 0.00 0.00 0.00 74 1017.0
20260507230005 53 168 0.0 2.6 0.00 0.00 0.00 74 1017.3
20260507225904 53 167 0.0 2.6 0.00 0.00 0.00 74 1017.2
20260507225804 53 170 0.0 2.6 0.00 0.00 0.00 74 1017.0
20260507225704 53 170 0.0 2.6 0.00 0.00 0.00 74 1017.1
20260507225604 53 170 0.0 2.6 0.00 0.00 0.00 74 1017.1
20260507225504 53 169 0.0 2.6 0.00 0.00 0.00 74 1017.1
20260507225404 53 171 0.0 2.6 0.00 0.00 0.00 74 1017.1
20260507225306 53 168 0.0 2.6 0.00 0.00 0.00 74 1017.1
20260507225204 53 168 0.0 2.6 0.00 0.00 0.00 74 1017.2
20260507225104 53 169 0.0 2.6 0.00 0.00 0.00 74 1017.4
20260507225004 53 170 0.0 2.6 0.00 0.00 0.00 74 1017.0
20260507224904 53 171 0.0 2.6 0.00 0.00 0.00 74 1017.0
20260507224804 54 170 0.0 2.6 0.00 0.00 0.00 74 1017.1
20260507224705 54 168 0.0 2.6 0.00 0.00 0.00 74 1017.2
20260507224604 54 168 0.0 2.6 0.00 0.00 0.00 74 1017.4
20260507224505 54 168 0.0 2.6 0.00 0.00 0.00 74 1017.1
20260507224404 54 164 0.0 2.6 0.00 0.00 0.00 74 1017.2
20260507224304 54 166 0.0 2.6 0.00 0.00 0.00 74 1017.2
20260507224204 54 167 0.0 2.6 0.00 0.00 0.00 74 1017.3
20260507224125 54 160 0.0 1.7 0.00 0.00 0.00 74 1017.3
20260507224004 54 162 0.0 1.7 0.00 0.00 0.00 74 1017.2
20260507223904 54 162 0.0 1.7 0.00 0.00 0.00 74 1017.1
20260507223804 54 162 0.0 1.7 0.00 0.00 0.00 74 1017.3
20260507223704 54 170 0.0 0.9 0.00 0.00 0.00 74 1017.2
20260507223604 54 169 0.0 0.9 0.00 0.00 0.00 74 1017.4
20260507223504 54 169 0.0 0.9 0.00 0.00 0.00 73 1017.3
20260507223404 54 175 0.0 0.9 0.00 0.00 0.00 74 1017.4
20260507223304 54 177 0.0 0.9 0.00 0.00 0.00 73 1017.3
20260507223204 54 176 0.0 0.9 0.00 0.00 0.00 74 1017.3
20260507223104 54 176 0.0 0.9 0.00 0.00 0.00 74 1017.3
20260507223005 54 182 0.0 0.9 0.00 0.00 0.00 74 1017.3
20260507222904 54 188 0.0 0.9 0.00 0.00 0.00 73 1017.6
20260507222804 54 187 0.0 0.9 0.00 0.00 0.00 73 1017.2
20260507222725 54 187 0.0 0.9 0.00 0.00 0.00 73 1017.4
20260507222604 54 187 0.0 0.9 0.00 0.00 0.00 73 1017.3
20260507222504 54 187 0.0 0.9 0.00 0.00 0.00 73 1017.4
20260507222404 54 186 0.0 0.9 0.00 0.00 0.00 73 1017.5
20260507222306 54 184 0.0 0.9 0.00 0.00 0.00 73 1017.4
20260507222225 54 184 0.0 0.9 0.00 0.00 0.00 73 1017.4
20260507222104 54 184 0.0 0.9 0.00 0.00 0.00 73 1017.4
20260507222004 54 184 0.0 0.9 0.00 0.00 0.00 73 1017.3
20260507221904 54 184 0.0 0.9 0.00 0.00 0.00 73 1017.6
20260507221804 54 0 0.0 0.0 0.00 0.00 0.00 73 1017.3
20260507221704 54 0 0.0 0.0 0.00 0.00 0.00 73 1017.3
20260507221604 54 0 0.0 0.0 0.00 0.00 0.00 73 1017.3
20260507221504 54 0 0.0 0.0 0.00 0.00 0.00 73 1017.5
20260507221404 54 0 0.0 0.0 0.00 0.00 0.00 72 1017.4
20260507221304 54 163 0.0 1.7 0.00 0.00 0.00 72 1017.5
20260507221204 54 163 0.0 1.7 0.00 0.00 0.00 72 1017.4
20260507221104 54 162 0.0 1.7 0.00 0.00 0.00 72 1017.3
20260507221025 54 159 0.0 1.7 0.00 0.00 0.00 72 1017.3
20260507220904 54 158 0.0 1.7 0.00 0.00 0.00 72 1017.3
20260507220804 54 158 0.0 1.7 0.00 0.00 0.00 72 1017.4
20260507220704 55 158 0.0 1.7 0.00 0.00 0.00 71 1017.5
20260507220604 55 158 0.0 1.7 0.00 0.00 0.00 71 1017.6
20260507220504 55 158 0.0 1.7 0.00 0.00 0.00 71 1017.6
20260507220404 55 158 0.0 1.7 0.00 0.00 0.00 71 1017.3
20260507220304 55 160 0.0 1.7 0.00 0.00 0.00 71 1017.3
20260507220205 55 160 0.0 1.7 0.00 0.00 0.00 71 1017.2
20260507220104 55 160 0.0 1.7 0.00 0.00 0.00 71 1017.3
20260507220004 55 174 0.0 1.7 0.00 0.00 0.00 71 1017.5
20260507215904 55 174 0.0 1.7 0.00 0.00 0.00 71 1017.5
20260507215804 55 174 0.0 1.7 0.00 0.00 0.00 71 1017.5
20260507215704 55 174 0.0 1.7 0.00 0.00 0.00 71 1017.6
20260507215604 55 175 0.0 1.7 0.00 0.00 0.00 71 1017.5
20260507215504 55 175 0.0 1.7 0.00 0.00 0.00 71 1017.2
20260507215404 55 175 0.0 1.7 0.00 0.00 0.00 71 1017.3
20260507215306 55 158 0.0 1.7 0.00 0.00 0.00 70 1017.5
20260507215225 55 161 0.0 1.7 0.00 0.00 0.00 70 1017.7
20260507215104 55 161 0.0 1.7 0.00 0.00 0.00 70 1017.3
20260507215004 55 161 0.0 1.7 0.00 0.00 0.00 70 1017.5
20260507214904 55 162 0.0 1.7 0.00 0.00 0.00 70 1017.4
20260507214804 56 163 0.0 1.7 0.00 0.00 0.00 70 1017.4
20260507214725 56 163 0.0 1.7 0.00 0.00 0.00 70 1017.4
20260507214604 56 162 0.0 1.7 0.00 0.00 0.00 70 1017.5
20260507214504 56 164 0.0 1.7 0.00 0.00 0.00 70 1017.5
20260507214404 56 164 0.0 1.7 0.00 0.00 0.00 70 1017.3
20260507214304 56 168 0.0 1.7 0.00 0.00 0.00 69 1017.6
20260507214204 56 170 0.0 0.9 0.00 0.00 0.00 69 1017.3
20260507214104 56 171 0.0 0.9 0.00 0.00 0.00 69 1017.5
20260507214004 56 171 0.0 0.9 0.00 0.00 0.00 69 1017.5
20260507213925 56 171 0.0 0.9 0.00 0.00 0.00 69 1017.5
20260507213804 56 171 0.0 0.9 0.00 0.00 0.00 69 1017.7
20260507213704 56 171 0.0 0.9 0.00 0.00 0.00 69 1017.3
20260507213604 56 171 0.0 0.9 0.00 0.00 0.00 69 1017.7
20260507213504 56 152 0.0 0.9 0.00 0.00 0.00 69 1017.6
20260507213404 56 152 0.0 0.9 0.00 0.00 0.00 69 1017.5
20260507213304 56 152 0.0 0.9 0.00 0.00 0.00 69 1017.4
20260507213225 56 153 0.0 0.9 0.00 0.00 0.00 69 1017.4
20260507213104 56 153 0.0 0.9 0.00 0.00 0.00 69 1017.6
20260507213004 56 153 0.0 0.9 0.00 0.00 0.00 68 1017.5
20260507212905 56 153 0.0 0.9 0.00 0.00 0.00 68 1017.7
20260507212804 56 156 0.0 0.9 0.00 0.00 0.00 68 1017.5
20260507212704 56 156 0.0 0.9 0.00 0.00 0.00 68 1017.4
20260507212604 56 156 0.0 0.9 0.00 0.00 0.00 68 1017.3
20260507212504 56 159 0.0 0.9 0.00 0.00 0.00 68 1017.4
20260507212404 56 159 0.0 0.9 0.00 0.00 0.00 68 1017.4
20260507212307 56 159 0.0 0.9 0.00 0.00 0.00 68 1017.5
20260507212204 56 165 0.0 0.9 0.00 0.00 0.00 68 1017.5
20260507212125 56 168 0.0 0.9 0.00 0.00 0.00 68 1017.4
20260507212004 56 168 0.0 0.9 0.00 0.00 0.00 68 1017.5
20260507211904 56 165 0.0 0.9 0.00 0.00 0.00 68 1017.0
20260507211804 56 164 0.0 0.9 0.00 0.00 0.00 68 1017.4
20260507211704 56 164 0.0 0.9 0.00 0.00 0.00 68 1017.7
20260507211604 56 164 0.0 0.9 0.00 0.00 0.00 68 1017.5
20260507211504 56 164 0.0 0.9 0.00 0.00 0.00 68 1017.6
20260507211404 56 164 0.0 0.9 0.00 0.00 0.00 67 1017.4
20260507211304 57 164 0.0 0.9 0.00 0.00 0.00 67 1017.5
20260507211204 57 157 0.0 0.9 0.00 0.00 0.00 67 1017.4
20260507211104 57 157 0.0 0.9 0.00 0.00 0.00 67 1017.3
20260507211004 57 157 0.0 0.9 0.00 0.00 0.00 67 1017.5
20260507210904 57 0 0.0 0.0 0.00 0.00 0.00 67 1017.3
20260507210804 57 0 0.0 0.0 0.00 0.00 0.00 67 1017.4
20260507210725 57 0 0.0 0.0 0.00 0.00 0.00 67 1017.4
20260507210604 57 0 0.0 0.0 0.00 0.00 0.00 67 1017.4
20260507210504 57 0 0.0 0.0 0.00 0.00 0.00 67 1017.3
20260507210404 57 0 0.0 0.0 0.00 0.00 0.00 67 1017.4
20260507210304 57 0 0.0 0.0 0.00 0.00 0.00 67 1017.4
20260507210204 57 0 0.0 0.0 0.00 0.00 0.00 66 1017.4
20260507210104 57 0 0.0 0.0 0.00 0.00 0.00 67 1017.2
20260507210005 57 0 0.0 0.0 0.00 0.00 0.00 66 1017.4
20260507205904 57 0 0.0 0.0 0.00 0.00 0.00 66 1017.2
20260507205804 57 0 0.0 0.0 0.00 0.00 0.00 66 1017.2
20260507205704 57 0 0.0 0.0 0.00 0.00 0.00 66 1017.3
20260507205604 57 0 0.0 0.0 0.00 0.00 0.00 66 1017.1
20260507205525 57 0 0.0 0.0 0.00 0.00 0.00 66 1017.2
20260507205404 57 0 0.0 0.0 0.00 0.00 0.00 66 1017.2
20260507205306 57 166 0.0 0.9 0.00 0.00 0.00 66 1017.5
20260507205225 57 166 0.0 0.9 0.00 0.00 0.00 66 1017.4
20260507205104 57 166 0.0 0.9 0.00 0.00 0.00 65 1017.3
20260507205004 57 166 0.0 0.9 0.00 0.00 0.00 65 1017.3
20260507204904 57 166 0.0 0.9 0.00 0.00 0.00 65 1017.3
20260507204804 58 166 0.0 0.9 0.00 0.00 0.00 65 1017.1
20260507204704 58 166 0.0 0.9 0.00 0.00 0.00 65 1017.1
20260507204604 58 166 0.0 0.9 0.00 0.00 0.00 65 1017.2
20260507204505 58 166 0.0 0.9 0.00 0.00 0.00 65 1017.2
20260507204404 58 166 0.0 0.9 0.00 0.00 0.00 64 1017.1
20260507204304 58 0 0.0 0.0 0.00 0.00 0.00 64 1017.3
20260507204205 58 0 0.0 0.0 0.00 0.00 0.00 64 1017.2
20260507204125 58 0 0.0 0.0 0.00 0.00 0.00 64 1017.1
20260507204004 58 0 0.0 0.0 0.00 0.00 0.00 64 1017.3
20260507203904 58 0 0.0 0.0 0.00 0.00 0.00 64 1017.0
20260507203825 58 0 0.0 0.0 0.00 0.00 0.00 64 1017.1
20260507203704 58 0 0.0 0.0 0.00 0.00 0.00 64 1017.2
20260507203604 58 0 0.0 0.0 0.00 0.00 0.00 64 1017.2
20260507203504 58 172 0.0 0.9 0.00 0.00 0.00 64 1017.2
20260507203404 58 172 0.0 0.9 0.00 0.00 0.00 63 1017.0
20260507203325 58 172 0.0 0.9 0.00 0.00 0.00 63 1017.2
20260507203204 58 172 0.0 0.9 0.00 0.00 0.00 63 1017.1
20260507203104 58 166 0.0 1.7 0.00 0.00 0.00 63 1017.3
20260507203004 58 166 0.0 1.7 0.00 0.00 0.00 63 1017.1
20260507202904 58 169 0.0 1.7 0.00 0.00 0.00 63 1017.3
20260507202804 58 169 0.0 1.7 0.00 0.00 0.00 63 1017.1
20260507202704 58 166 0.0 1.7 0.00 0.00 0.00 63 1017.3
20260507202604 58 166 0.0 1.7 0.00 0.00 0.00 62 1017.1
20260507202525 59 166 0.0 1.7 0.00 0.00 0.00 62 1017.2
20260507202425 59 164 0.0 1.7 0.00 0.00 0.00 62 1017.2
20260507202306 59 164 0.0 1.7 0.00 0.00 0.00 62 1017.4
20260507202225 59 164 0.0 1.7 0.00 0.00 0.00 62 1017.0
20260507202104 59 166 0.0 1.7 0.00 0.00 0.00 62 1017.1
20260507202005 59 167 0.0 1.7 0.00 0.00 0.00 62 1017.0
20260507201925 59 163 0.0 1.7 0.00 0.00 0.00 62 1017.0
20260507201804 59 164 0.0 1.7 0.00 0.00 0.00 62 1017.2
20260507201725 59 173 0.0 1.7 0.00 0.00 0.00 62 1016.9
20260507201604 59 174 0.0 1.7 0.00 0.00 0.00 61 1017.0
20260507201504 59 174 0.0 1.7 0.00 0.00 0.00 61 1016.9
20260507201404 59 174 0.0 1.7 0.00 0.00 0.00 61 1016.9
20260507201304 59 175 0.0 1.7 0.00 0.00 0.00 61 1017.1
20260507201204 59 176 0.0 1.7 0.00 0.00 0.00 61 1017.2
20260507201104 59 176 0.0 1.7 0.00 0.00 0.00 61 1017.0
20260507201004 59 179 0.0 2.6 0.00 0.00 0.00 61 1017.0
20260507200925 59 180 0.0 2.6 0.00 0.00 0.00 60 1017.0
20260507200804 59 182 0.0 2.6 0.00 0.00 0.00 60 1017.0
20260507200704 59 181 0.0 2.6 0.00 0.00 0.00 60 1017.0
20260507200604 60 181 0.0 2.6 0.00 0.00 0.00 60 1016.9
20260507200526 60 181 0.0 2.6 0.00 0.00 0.00 60 1017.0
20260507200404 60 181 0.0 2.6 0.00 0.00 0.00 60 1017.2
20260507200304 60 180 0.0 2.6 0.00 0.00 0.00 59 1017.2
20260507200204 60 177 0.0 2.6 0.00 0.00 0.00 59 1017.0
20260507200126 60 177 0.0 2.6 0.00 0.00 0.00 59 1017.3
20260507200004 60 175 0.0 2.6 0.00 0.00 0.00 59 1017.1
20260507195904 60 174 0.0 2.6 0.00 0.00 0.00 59 1016.9
20260507195804 60 169 0.0 2.6 0.00 0.00 0.00 59 1017.2
20260507195704 60 168 0.0 2.6 0.00 0.00 0.00 59 1016.9
20260507195604 60 168 0.0 2.6 0.00 0.00 0.00 59 1017.0
20260507195504 60 168 0.0 2.6 0.00 0.00 0.00 58 1017.2
20260507195404 60 168 0.0 2.6 0.00 0.00 0.00 58 1017.0
20260507195305 60 168 0.0 2.6 0.00 0.00 0.00 58 1016.8
20260507195204 60 167 0.0 2.6 0.00 0.00 0.00 58 1017.0
20260507195125 60 159 0.0 1.7 0.00 0.00 0.00 58 1017.0
20260507195004 60 159 0.0 1.7 0.00 0.00 0.00 58 1017.3
20260507194904 60 161 0.0 1.7 0.00 0.00 0.00 58 1016.9
20260507194804 60 167 0.0 1.7 0.00 0.00 0.00 58 1017.0
20260507194705 60 170 0.0 1.7 0.00 0.00 0.00 58 1017.0
20260507194604 60 170 0.0 1.7 0.00 0.00 0.00 58 1017.1
20260507194504 60 161 0.0 2.6 0.00 0.00 0.00 57 1017.1
20260507194404 60 159 0.0 2.6 0.00 0.00 0.00 57 1017.0
20260507194304 60 157 0.0 2.6 0.00 0.00 0.00 57 1016.9
20260507194204 60 157 0.0 2.6 0.00 0.00 0.00 57 1016.9
20260507194104 60 157 0.0 2.6 0.00 0.00 0.00 57 1017.1
20260507194004 60 157 0.0 2.6 0.00 0.00 0.00 57 1016.9
20260507193904 60 157 0.0 2.6 0.00 0.00 0.00 56 1016.8
20260507193804 60 157 0.0 2.6 0.00 0.00 0.00 56 1017.1
20260507193704 61 157 0.0 2.6 0.00 0.00 0.00 56 1017.0
20260507193605 60 157 0.0 2.6 0.00 0.00 0.00 56 1016.9
20260507193504 60 157 0.0 1.7 0.00 0.00 0.00 56 1017.0
20260507193425 61 157 0.0 1.7 0.00 0.00 0.00 56 1016.9
20260507193325 61 166 0.0 2.6 0.00 0.00 0.00 55 1017.0
20260507193204 61 170 0.0 2.6 0.00 0.00 0.00 55 1017.2
20260507193104 61 170 0.0 2.6 0.00 0.00 0.00 55 1016.8
20260507193004 61 173 0.0 2.6 0.00 0.00 0.00 55 1017.0
20260507192904 61 174 0.0 2.6 0.00 0.00 0.00 55 1017.2
20260507192804 61 174 0.0 2.6 0.00 0.00 0.00 55 1017.0
20260507192704 61 174 0.0 2.6 0.00 0.00 0.00 54 1017.0
20260507192604 61 171 0.0 2.6 0.00 0.00 0.00 54 1016.8
20260507192504 61 173 0.0 2.6 0.00 0.00 0.00 54 1017.0
20260507192404 61 172 0.0 2.6 0.00 0.00 0.00 54 1016.9
20260507192306 61 171 0.0 2.6 0.00 0.00 0.00 54 1016.9
20260507192225 61 169 0.0 2.6 0.00 0.00 0.00 54 1017.1
20260507192104 61 166 0.0 1.7 0.00 0.00 0.00 54 1017.1
20260507192004 61 167 0.0 1.7 0.00 0.00 0.00 54 1016.9
20260507191904 61 167 0.0 1.7 0.00 0.00 0.00 54 1016.9
20260507191804 61 167 0.0 1.7 0.00 0.00 0.00 54 1017.1
20260507191704 61 168 0.0 1.7 0.00 0.00 0.00 53 1016.9
20260507191604 61 170 0.0 1.7 0.00 0.00 0.00 54 1017.2
20260507191504 61 168 0.0 1.7 0.00 0.00 0.00 54 1017.1
20260507191425 61 169 0.0 1.7 0.00 0.00 0.00 53 1017.0
20260507191304 61 171 0.0 0.9 0.00 0.00 0.00 53 1016.9
20260507191225 61 170 0.0 0.9 0.00 0.00 0.00 53 1017.2
20260507191125 62 169 0.0 0.9 0.00 0.00 0.00 53 1017.1
20260507191025 62 169 0.0 0.9 0.00 0.00 0.00 53 1016.9
20260507190925 62 168 0.0 0.9 0.00 0.00 0.00 53 1016.9
20260507190804 62 168 0.0 0.9 0.00 0.00 0.00 53 1017.1
20260507190704 62 159 0.0 1.7 0.00 0.00 0.00 53 1017.0
20260507190604 62 159 0.0 1.7 0.00 0.00 0.00 53 1016.9
20260507190504 62 159 0.0 1.7 0.00 0.00 0.00 52 1016.9
20260507190425 62 155 0.0 1.7 0.00 0.00 0.00 52 1016.8
20260507190304 62 154 0.0 1.7 0.00 0.00 0.00 52 1016.8
20260507190204 62 151 0.0 1.7 0.00 0.00 0.00 53 1016.9
20260507190104 62 148 0.0 1.7 0.00 0.00 0.00 52 1016.9
20260507190005 62 148 0.0 1.7 0.00 0.00 0.00 52 1016.9
20260507185905 62 150 0.0 1.7 0.00 0.00 0.00 52 1016.9
20260507185804 62 150 0.0 1.7 0.00 0.00 0.00 52 1017.0
20260507185704 62 167 0.0 0.9 0.00 0.00 0.00 52 1017.0
20260507185604 62 166 0.0 0.9 0.00 0.00 0.00 52 1017.0
20260507185525 62 166 0.0 0.9 0.00 0.00 0.00 52 1016.8
20260507185404 62 166 0.0 0.9 0.00 0.00 0.00 52 1017.0
20260507185325 62 166 0.0 0.9 0.00 0.00 0.00 52 1016.9
20260507185204 62 161 0.0 0.9 0.00 0.00 0.00 51 1017.0
20260507185104 62 162 0.0 2.6 0.00 0.00 0.00 51 1017.1
20260507185004 62 162 0.0 2.6 0.00 0.00 0.00 51 1016.9
20260507184904 62 162 0.0 2.6 0.00 0.00 0.00 51 1017.0
20260507184804 62 162 0.0 2.6 0.00 0.00 0.00 51 1017.1
20260507184704 62 160 0.0 2.6 0.00 0.00 0.00 51 1016.9
20260507184604 62 165 0.0 2.6 0.00 0.00 0.00 51 1017.1
20260507184504 62 165 0.0 2.6 0.00 0.00 0.00 51 1016.9
20260507184404 62 165 0.0 2.6 0.00 0.00 0.00 51 1016.9
20260507184304 62 165 0.0 2.6 0.00 0.00 0.00 50 1016.9
20260507184225 62 168 0.0 2.6 0.00 0.00 0.00 50 1017.0
20260507184104 62 169 0.0 2.6 0.00 0.00 0.00 50 1016.9
20260507184004 62 168 0.0 2.6 0.00 0.00 0.00 50 1016.7
20260507183904 62 167 0.0 2.6 0.00 0.00 0.00 50 1017.1
20260507183804 62 167 0.0 2.6 0.00 0.00 0.00 50 1016.9
20260507183704 62 167 0.0 2.6 0.00 0.00 0.00 50 1016.8
20260507183604 62 168 0.0 2.6 0.00 0.00 0.00 50 1016.7
20260507183504 62 163 0.0 1.7 0.00 0.00 0.00 50 1016.8
20260507183404 62 163 0.0 1.7 0.00 0.00 0.00 50 1016.8
20260507183304 62 163 0.0 1.7 0.00 0.00 0.00 50 1016.7
20260507183204 62 163 0.0 1.7 0.00 0.00 0.00 50 1016.5
20260507183104 62 163 0.0 1.7 0.00 0.00 0.00 50 1016.5
20260507183004 62 163 0.0 1.7 0.00 0.00 0.00 50 1016.7
20260507182904 62 0 0.0 0.0 0.00 0.00 0.00 50 1016.6
20260507182804 62 0 0.0 0.0 0.00 0.00 0.00 50 1016.8
20260507182704 62 0 0.0 0.0 0.00 0.00 0.00 50 1016.6
20260507182604 62 0 0.0 0.0 0.00 0.00 0.00 50 1016.7
20260507182504 62 0 0.0 0.0 0.00 0.00 0.00 50 1016.5
20260507182425 62 165 0.0 0.9 0.00 0.00 0.00 50 1016.8
20260507182306 62 165 0.0 0.9 0.00 0.00 0.00 49 1016.7
20260507182204 62 165 0.0 0.9 0.00 0.00 0.00 49 1016.9
20260507182104 62 165 0.0 0.9 0.00 0.00 0.00 49 1016.7
20260507182004 62 165 0.0 0.9 0.00 0.00 0.00 49 1016.7
20260507181904 62 165 0.0 0.9 0.00 0.00 0.00 49 1016.6
20260507181825 62 165 0.0 0.9 0.00 0.00 0.00 49 1016.6
20260507181704 62 165 0.0 0.9 0.00 0.00 0.00 48 1016.7
20260507181604 62 165 0.0 0.9 0.00 0.00 0.00 48 1016.5
20260507181504 62 165 0.0 0.9 0.00 0.00 0.00 48 1016.5
20260507181425 62 155 0.0 0.9 0.00 0.00 0.00 48 1016.6
20260507181304 63 155 0.0 0.9 0.00 0.00 0.00 48 1016.7
20260507181204 63 155 0.0 0.9 0.00 0.00 0.00 48 1016.5
20260507181104 63 155 0.0 0.9 0.00 0.00 0.00 48 1016.7
20260507181004 63 155 0.0 0.9 0.00 0.00 0.00 47 1016.5
20260507180904 63 155 0.0 0.9 0.00 0.00 0.00 47 1016.6
20260507180825 63 155 0.0 0.9 0.00 0.00 0.00 47 1016.5
20260507180704 63 150 0.0 1.7 0.00 0.00 0.00 47 1016.6
20260507180604 63 150 0.0 1.7 0.00 0.00 0.00 47 1016.6
20260507180504 63 150 0.0 1.7 0.00 0.00 0.00 47 1016.4
20260507180404 63 145 0.0 1.7 0.00 0.00 0.00 47 1016.5
20260507180304 64 145 0.0 1.7 0.00 0.00 0.00 46 1016.6
20260507180225 64 145 0.0 1.7 0.00 0.00 0.00 46 1016.5
20260507180104 64 145 0.0 1.7 0.00 0.00 0.00 46 1016.3
20260507180025 64 145 0.0 1.7 0.00 0.00 0.00 46 1016.4
20260507175904 64 145 0.0 1.7 0.00 0.00 0.00 46 1016.6
20260507175825 64 145 0.0 1.7 0.00 0.00 0.00 46 1016.5
20260507175704 64 0 0.0 0.0 0.00 0.00 0.00 46 1016.5
20260507175604 64 0 0.0 0.0 0.00 0.00 0.00 46 1016.5
20260507175525 64 0 0.0 0.0 0.00 0.00 0.00 46 1016.6
20260507175404 64 0 0.0 0.0 0.00 0.00 0.00 46 1016.5
20260507175325 64 0 0.0 0.0 0.00 0.00 0.00 46 1016.5
20260507175204 64 0 0.0 0.0 0.00 0.00 0.00 46 1016.5
20260507175104 64 0 0.0 0.0 0.00 0.00 0.00 46 1016.6
20260507175004 64 161 0.0 2.6 0.00 0.00 0.00 46 1016.4
20260507174925 64 164 0.0 2.6 0.00 0.00 0.00 45 1016.4
20260507174804 65 164 0.0 2.6 0.00 0.00 0.00 45 1016.4
20260507174704 65 164 0.0 2.6 0.00 0.00 0.00 45 1016.5
20260507174604 65 164 0.0 2.6 0.00 0.00 0.00 45 1016.3
20260507174525 65 164 0.0 2.6 0.00 0.00 0.00 45 1016.4
20260507174404 65 164 0.0 2.6 0.00 0.00 0.00 45 1016.6
20260507174304 65 164 0.0 2.6 0.00 0.00 0.00 45 1016.3
20260507174225 65 164 0.0 2.6 0.00 0.00 0.00 44 1016.2
20260507174104 65 164 0.0 2.6 0.00 0.00 0.00 44 1016.3
20260507174004 65 166 0.0 2.6 0.00 0.00 0.00 44 1016.6
20260507173904 65 0 0.0 0.0 0.00 0.00 0.00 44 1016.2
20260507173825 65 0 0.0 0.0 0.00 0.00 0.00 44 1016.4
20260507173704 65 0 0.0 0.0 0.00 0.00 0.00 44 1016.5
20260507173604 65 0 0.0 0.0 0.00 0.00 0.00 44 1016.5
20260507173504 65 0 0.0 0.0 0.00 0.00 0.00 43 1016.4
20260507173404 65 0 0.0 0.0 0.00 0.00 0.00 43 1016.6
20260507173325 65 169 0.0 1.7 0.00 0.00 0.00 43 1016.3
20260507173204 65 169 0.0 1.7 0.00 0.00 0.00 44 1016.4
20260507173104 65 169 0.0 1.7 0.00 0.00 0.00 44 1016.3
20260507173025 66 169 0.0 1.7 0.00 0.00 0.00 43 1016.5
20260507172904 66 169 0.0 1.7 0.00 0.00 0.00 43 1016.6
20260507172825 66 169 0.0 1.7 0.00 0.00 0.00 43 1016.2
20260507172704 66 169 0.0 1.7 0.00 0.00 0.00 43 1016.6
20260507172604 66 169 0.0 1.7 0.00 0.00 0.00 43 1016.5
20260507172504 66 169 0.0 1.7 0.00 0.00 0.00 43 1016.3
20260507172404 66 169 0.0 1.7 0.00 0.00 0.00 42 1016.3
20260507172325 66 169 0.0 1.7 0.00 0.00 0.00 42 1016.3
20260507172204 66 0 0.0 0.0 0.00 0.00 0.00 43 1016.4
20260507172104 66 0 0.0 0.0 0.00 0.00 0.00 43 1016.6
20260507172004 66 0 0.0 0.0 0.00 0.00 0.00 42 1016.5
20260507171904 66 0 0.0 0.0 0.00 0.00 0.00 42 1016.5
20260507171804 67 0 0.0 0.0 0.00 0.00 0.00 42 1016.2
20260507171704 67 0 0.0 0.0 0.00 0.00 0.00 42 1016.2
20260507171604 67 0 0.0 0.0 0.00 0.00 0.00 42 1016.0
20260507171504 67 0 0.0 0.0 0.00 0.00 0.00 42 1016.2
20260507171404 67 0 0.0 0.0 0.00 0.00 0.00 41 1016.5
20260507171304 67 0 0.0 0.0 0.00 0.00 0.00 41 1016.3
20260507171204 67 0 0.0 0.0 0.00 0.00 0.00 41 1016.2
20260507171104 67 0 0.0 0.0 0.00 0.00 0.00 41 1016.5
20260507171025 67 0 0.0 0.0 0.00 0.00 0.00 41 1016.2
20260507170904 68 0 0.0 0.0 0.00 0.00 0.00 40 1016.3
20260507170825 68 0 0.0 0.0 0.00 0.00 0.00 40 1016.3
20260507170704 68 166 0.0 1.7 0.00 0.00 0.00 40 1016.2
20260507170604 68 166 0.0 1.7 0.00 0.00 0.00 40 1016.4
20260507170504 68 167 0.0 2.6 0.00 0.00 0.00 40 1016.2
20260507170425 68 169 0.0 2.6 0.00 0.00 0.00 40 1016.2
20260507170325 68 170 0.0 2.6 0.00 0.00 0.00 39 1016.2
20260507170204 68 170 0.0 2.6 0.00 0.00 0.00 39 1016.0
20260507170104 69 171 0.0 2.6 0.00 0.00 0.00 39 1016.6
20260507170004 69 172 0.0 2.6 0.00 0.00 0.00 39 1016.4
20260507165904 69 171 0.0 2.6 0.00 0.00 0.00 39 1016.5
20260507165804 69 159 0.0 5.2 0.00 0.00 0.00 38 1016.1
20260507165704 69 158 0.0 5.2 0.00 0.00 0.00 39 1016.2
20260507165604 69 158 0.0 5.2 0.00 0.00 0.00 38 1016.3
20260507165505 69 158 0.0 5.2 0.00 0.00 0.00 38 1016.3
20260507165404 69 156 0.0 5.2 0.00 0.00 0.00 38 1016.1
20260507165325 69 158 0.0 5.2 0.00 0.00 0.00 38 1016.2
20260507165204 69 164 0.0 5.2 0.00 0.00 0.00 38 1016.2
20260507165104 69 162 0.9 5.2 0.00 0.00 0.00 37 1016.0
20260507165004 69 159 0.9 5.2 0.00 0.00 0.00 38 1016.2
20260507164904 69 160 0.9 5.2 0.00 0.00 0.00 37 1016.0
20260507164804 69 167 0.0 3.5 0.00 0.00 0.00 37 1016.2
20260507164704 69 167 0.9 3.5 0.00 0.00 0.00 37 1016.2
20260507164604 69 166 0.9 3.5 0.00 0.00 0.00 37 1016.0
20260507164504 70 166 0.9 3.5 0.00 0.00 0.00 37 1016.2
20260507164425 70 166 0.9 3.5 0.00 0.00 0.00 37 1016.2
20260507164304 70 160 0.9 3.5 0.00 0.00 0.00 37 1016.1
20260507164205 70 157 0.9 3.5 0.00 0.00 0.00 36 1016.1
20260507164104 70 158 0.0 3.5 0.00 0.00 0.00 37 1016.2
20260507164004 70 158 0.9 3.5 0.00 0.00 0.00 36 1016.2
20260507163925 70 162 0.9 5.2 0.00 0.00 0.00 36 1016.0
20260507163804 70 165 0.9 5.2 0.00 0.00 0.00 36 1016.1
20260507163704 70 163 0.9 5.2 0.00 0.00 0.00 36 1016.0
20260507163625 70 165 0.9 5.2 0.00 0.00 0.00 36 1015.9
20260507163504 70 163 0.9 5.2 0.00 0.00 0.00 36 1016.0
20260507163404 70 162 0.9 6.1 0.00 0.00 0.00 36 1016.1
20260507163304 71 164 0.9 6.1 0.00 0.00 0.00 36 1015.9
20260507163225 71 165 0.9 6.1 0.00 0.00 0.00 36 1016.0
20260507163104 71 166 0.9 6.1 0.00 0.00 0.00 36 1015.9
20260507163025 71 165 0.9 6.1 0.00 0.00 0.00 35 1016.0
20260507162925 71 160 0.9 6.1 0.00 0.00 0.00 35 1016.0
20260507162804 71 160 0.9 6.1 0.00 0.00 0.00 35 1016.0
20260507162704 71 162 0.9 6.1 0.00 0.00 0.00 35 1016.1
20260507162625 71 163 0.9 6.1 0.00 0.00 0.00 35 1016.1
20260507162504 71 163 0.9 6.1 0.00 0.00 0.00 35 1016.2
20260507162404 71 165 0.0 2.6 0.00 0.00 0.00 35 1016.0
20260507162307 71 165 0.0 2.6 0.00 0.00 0.00 35 1016.0
20260507162205 71 163 0.0 2.6 0.00 0.00 0.00 35 1016.0
20260507162125 71 165 0.0 3.5 0.00 0.00 0.00 34 1016.2
20260507162025 71 166 0.0 3.5 0.00 0.00 0.00 34 1016.0
20260507161904 71 169 0.0 3.5 0.00 0.00 0.00 34 1016.1
20260507161804 71 157 0.9 7.8 0.00 0.00 0.00 34 1016.0
20260507161704 71 163 0.9 7.8 0.00 0.00 0.00 34 1016.0
20260507161604 71 162 0.9 7.8 0.00 0.00 0.00 34 1016.0
20260507161504 71 163 0.9 7.8 0.00 0.00 0.00 34 1015.9
20260507161404 71 164 0.9 7.8 0.00 0.00 0.00 34 1015.8
20260507161304 71 163 0.9 7.8 0.00 0.00 0.00 33 1016.0
20260507161204 71 165 0.9 7.8 0.00 0.00 0.00 33 1015.9
20260507161104 72 167 0.9 7.8 0.00 0.00 0.00 33 1015.9
20260507161004 72 168 0.9 7.8 0.00 0.00 0.00 33 1015.9
20260507160904 72 166 0.9 7.8 0.00 0.00 0.00 33 1015.9
20260507160804 72 173 0.9 3.5 0.00 0.00 0.00 33 1015.9
20260507160704 72 168 0.9 3.5 0.00 0.00 0.00 32 1016.1
20260507160604 72 174 0.9 3.5 0.00 0.00 0.00 32 1016.1
20260507160504 72 173 0.9 3.5 0.00 0.00 0.00 32 1016.0
20260507160404 72 175 0.9 5.2 0.00 0.00 0.00 32 1015.6
20260507160304 72 178 0.9 5.2 0.00 0.00 0.00 32 1015.9
20260507160204 72 177 0.9 5.2 0.00 0.00 0.00 32 1016.0
20260507160104 72 177 0.9 5.2 0.00 0.00 0.00 31 1016.0
20260507160004 72 177 0.9 5.2 0.00 0.00 0.00 32 1015.8
20260507155904 72 177 0.9 5.2 0.00 0.00 0.00 31 1015.9
20260507155804 72 179 0.9 5.2 0.00 0.00 0.00 32 1015.9
20260507155704 72 187 0.9 5.2 0.00 0.00 0.00 32 1015.9
20260507155625 72 185 0.9 5.2 0.00 0.00 0.00 31 1015.9
20260507155525 72 182 0.9 5.2 0.00 0.00 0.00 31 1015.7
20260507155404 73 181 0.9 5.2 0.00 0.00 0.00 31 1015.8
20260507155325 73 181 0.9 5.2 0.00 0.00 0.00 31 1015.9
20260507155204 73 178 0.9 5.2 0.00 0.00 0.00 31 1015.9
20260507155104 73 175 0.9 5.2 0.00 0.00 0.00 31 1015.9
20260507155004 73 174 0.9 5.2 0.00 0.00 0.00 31 1015.9
20260507154904 73 175 0.9 5.2 0.00 0.00 0.00 31 1015.9
20260507154804 73 176 0.9 5.2 0.00 0.00 0.00 31 1015.9
20260507154704 73 165 0.9 5.2 0.00 0.00 0.00 31 1016.2
20260507154604 73 165 0.9 5.2 0.00 0.00 0.00 31 1015.9
20260507154504 73 166 0.9 5.2 0.00 0.00 0.00 31 1016.1
20260507154404 73 160 0.9 5.2 0.00 0.00 0.00 31 1015.9
20260507154304 73 160 0.9 7.0 0.00 0.00 0.00 32 1015.9
20260507154204 73 159 0.9 7.0 0.00 0.00 0.00 31 1016.1
20260507154104 73 164 0.9 7.0 0.00 0.00 0.00 31 1015.9
20260507154004 73 167 0.9 7.0 0.00 0.00 0.00 31 1016.1
20260507153904 73 170 0.9 7.8 0.00 0.00 0.00 31 1015.9
20260507153804 73 170 1.7 7.8 0.00 0.00 0.00 32 1015.9
20260507153704 73 172 1.7 7.8 0.00 0.00 0.00 32 1016.0
20260507153604 73 172 1.7 7.8 0.00 0.00 0.00 31 1015.8
20260507153504 73 176 1.7 7.8 0.00 0.00 0.00 31 1016.0
20260507153404 73 178 1.7 7.8 0.00 0.00 0.00 31 1015.9
20260507153304 73 179 1.7 7.8 0.00 0.00 0.00 31 1015.8
20260507153225 73 179 1.7 7.8 0.00 0.00 0.00 31 1015.8
20260507153104 73 177 1.7 7.8 0.00 0.00 0.00 31 1015.7
20260507153004 73 176 1.7 7.8 0.00 0.00 0.00 31 1015.8
20260507152904 73 177 1.7 7.0 0.00 0.00 0.00 31 1015.9
20260507152804 73 180 1.7 7.0 0.00 0.00 0.00 31 1015.9
20260507152704 73 179 1.7 7.0 0.00 0.00 0.00 31 1015.9
20260507152625 73 181 1.7 7.0 0.00 0.00 0.00 30 1015.8
20260507152504 73 179 1.7 8.7 0.00 0.00 0.00 30 1015.8
20260507152425 73 180 1.7 8.7 0.00 0.00 0.00 30 1015.8
20260507152306 74 183 1.7 8.7 0.00 0.00 0.00 31 1016.0
20260507152204 74 181 1.7 8.7 0.00 0.00 0.00 30 1016.2
20260507152104 74 185 1.7 8.7 0.00 0.00 0.00 30 1016.0
20260507152004 74 188 1.7 8.7 0.00 0.00 0.00 30 1016.0
20260507151904 74 187 1.7 8.7 0.00 0.00 0.00 30 1015.8
20260507151804 74 186 2.6 8.7 0.00 0.00 0.00 30 1016.0
20260507151704 74 183 2.6 8.7 0.00 0.00 0.00 30 1015.9
20260507151604 74 175 1.7 8.7 0.00 0.00 0.00 30 1015.9
20260507151505 75 175 1.7 6.1 0.00 0.00 0.00 30 1015.9
20260507151404 75 176 1.7 6.1 0.00 0.00 0.00 29 1016.1
20260507151304 75 175 1.7 7.0 0.00 0.00 0.00 29 1016.1
20260507151204 75 176 1.7 7.0 0.00 0.00 0.00 28 1015.8
20260507151104 75 173 1.7 7.0 0.00 0.00 0.00 28 1016.0
20260507151004 75 170 1.7 7.0 0.00 0.00 0.00 28 1015.9
20260507150904 75 170 1.7 7.0 0.00 0.00 0.00 28 1015.7
20260507150804 75 176 1.7 7.8 0.00 0.00 0.00 28 1015.8
20260507150704 76 174 1.7 7.8 0.00 0.00 0.00 28 1015.7
20260507150604 76 178 1.7 7.8 0.00 0.00 0.00 29 1016.0
20260507150504 76 178 1.7 7.8 0.00 0.00 0.00 29 1015.9
20260507150404 76 176 1.7 7.8 0.00 0.00 0.00 28 1015.9
20260507150304 76 177 1.7 7.8 0.00 0.00 0.00 29 1015.9
20260507150204 76 177 1.7 7.8 0.00 0.00 0.00 28 1015.7
20260507150104 76 180 1.7 7.8 0.00 0.00 0.00 28 1015.8
20260507150005 76 182 1.7 7.8 0.00 0.00 0.00 29 1016.1
20260507145904 76 182 1.7 7.8 0.00 0.00 0.00 28 1016.1
20260507145804 76 173 0.9 7.8 0.00 0.00 0.00 28 1015.8
20260507145704 76 178 0.9 7.0 0.00 0.00 0.00 28 1016.0
20260507145604 76 176 1.7 7.0 0.00 0.00 0.00 28 1016.0
20260507145504 76 178 1.7 7.0 0.00 0.00 0.00 28 1016.0
20260507145404 76 178 1.7 7.0 0.00 0.00 0.00 28 1016.0
20260507145306 76 182 1.7 7.0 0.00 0.00 0.00 28 1016.0
20260507145225 76 181 1.7 7.0 0.00 0.00 0.00 28 1016.0
20260507145104 76 180 1.7 7.0 0.00 0.00 0.00 28 1015.9
20260507145004 76 181 1.7 7.0 0.00 0.00 0.00 28 1016.0
20260507144904 76 180 1.7 7.8 0.00 0.00 0.00 28 1016.0
20260507144804 76 184 1.7 7.8 0.00 0.00 0.00 28 1016.0
20260507144705 76 190 1.7 7.8 0.00 0.00 0.00 27 1016.2
20260507144604 76 194 1.7 7.8 0.00 0.00 0.00 27 1015.8
20260507144504 76 191 1.7 7.8 0.00 0.00 0.00 26 1016.0
20260507144425 76 190 1.7 7.8 0.00 0.00 0.00 26 1015.9
20260507144304 77 185 1.7 7.8 0.00 0.00 0.00 26 1015.9
20260507144204 77 183 1.7 7.8 0.00 0.00 0.00 26 1016.0
20260507144104 77 180 1.7 7.8 0.00 0.00 0.00 26 1016.0
20260507144004 77 178 1.7 7.8 0.00 0.00 0.00 26 1016.2
20260507143904 77 176 0.9 6.1 0.00 0.00 0.00 27 1015.9
20260507143804 77 174 0.9 6.1 0.00 0.00 0.00 27 1015.9
20260507143704 77 165 0.9 6.1 0.00 0.00 0.00 27 1015.9
20260507143604 77 167 0.9 6.1 0.00 0.00 0.00 27 1016.0
20260507143504 78 168 0.9 5.2 0.00 0.00 0.00 27 1016.1
20260507143404 78 169 0.9 5.2 0.00 0.00 0.00 27 1016.2
20260507143325 78 169 0.9 5.2 0.00 0.00 0.00 27 1016.1
20260507143225 78 171 0.9 6.1 0.00 0.00 0.00 26 1016.1
20260507143104 78 180 0.9 6.1 0.00 0.00 0.00 26 1016.0
20260507143004 78 179 0.9 6.1 0.00 0.00 0.00 25 1015.9
20260507142904 78 176 0.9 6.1 0.00 0.00 0.00 24 1016.0
20260507142804 78 180 0.9 6.1 0.00 0.00 0.00 25 1016.0
20260507142704 78 178 0.9 6.1 0.00 0.00 0.00 25 1016.1
20260507142604 78 181 0.9 7.8 0.00 0.00 0.00 26 1016.0
20260507142504 78 182 0.9 7.8 0.00 0.00 0.00 25 1016.0
20260507142404 78 182 0.9 7.8 0.00 0.00 0.00 25 1016.1
20260507142306 78 188 0.9 7.8 0.00 0.00 0.00 25 1016.2
20260507142204 78 186 0.9 7.8 0.00 0.00 0.00 25 1016.1
20260507142125 78 180 0.9 7.8 0.00 0.00 0.00 26 1016.1
20260507142004 78 182 0.9 7.8 0.00 0.00 0.00 25 1016.0
20260507141904 78 181 1.7 7.8 0.00 0.00 0.00 26 1016.2
20260507141804 78 181 1.7 7.8 0.00 0.00 0.00 26 1016.1
20260507141704 78 184 1.7 7.8 0.00 0.00 0.00 26 1016.2
20260507141604 78 179 1.7 7.8 0.00 0.00 0.00 26 1015.9
20260507141504 78 179 1.7 7.0 0.00 0.00 0.00 25 1016.0
20260507141404 78 180 1.7 7.0 0.00 0.00 0.00 25 1016.1
20260507141304 78 179 1.7 7.0 0.00 0.00 0.00 25 1016.4
20260507141225 78 179 1.7 7.0 0.00 0.00 0.00 25 1016.2
20260507141104 78 179 1.7 7.0 0.00 0.00 0.00 25 1016.1
20260507141004 78 176 1.7 7.0 0.00 0.00 0.00 25 1016.3
20260507140925 78 179 1.7 7.0 0.00 0.00 0.00 24 1016.4
20260507140804 78 177 1.7 7.0 0.00 0.00 0.00 26 1016.1
20260507140704 78 173 1.7 7.0 0.00 0.00 0.00 25 1016.4
20260507140604 78 176 0.9 7.0 0.00 0.00 0.00 25 1016.2
20260507140504 78 175 0.9 7.0 0.00 0.00 0.00 24 1016.0
20260507140425 78 177 0.9 7.0 0.00 0.00 0.00 24 1016.2
20260507140304 78 174 0.9 7.0 0.00 0.00 0.00 24 1016.0
20260507140204 79 178 0.9 7.0 0.00 0.00 0.00 24 1016.0
20260507140104 79 182 0.9 7.0 0.00 0.00 0.00 24 1016.2
20260507140025 79 185 0.9 6.1 0.00 0.00 0.00 24 1016.0
20260507135904 79 186 0.9 6.1 0.00 0.00 0.00 24 1016.1
20260507135825 79 186 0.9 6.1 0.00 0.00 0.00 24 1016.1
20260507135704 79 185 0.9 7.0 0.00 0.00 0.00 24 1016.2
20260507135604 79 188 0.9 7.0 0.00 0.00 0.00 24 1016.3
20260507135504 78 189 0.9 7.0 0.00 0.00 0.00 24 1016.1
20260507135404 78 188 0.9 7.0 0.00 0.00 0.00 24 1016.0
20260507135306 78 191 0.9 7.0 0.00 0.00 0.00 24 1016.2
20260507135225 78 191 0.9 7.0 0.00 0.00 0.00 24 1016.0
20260507135104 78 185 0.9 7.0 0.00 0.00 0.00 25 1016.2
20260507135025 78 184 0.9 7.0 0.00 0.00 0.00 25 1016.2
20260507134904 79 182 0.9 7.0 0.00 0.00 0.00 25 1016.3
20260507134825 79 184 0.9 7.0 0.00 0.00 0.00 24 1016.2
20260507134725 79 187 0.9 7.0 0.00 0.00 0.00 24 1016.2
20260507134604 79 180 0.9 7.0 0.00 0.00 0.00 24 1016.3
20260507134504 79 180 0.9 7.0 0.00 0.00 0.00 24 1016.3
20260507134404 79 176 0.9 7.0 0.00 0.00 0.00 24 1016.4
20260507134325 78 173 0.9 7.0 0.00 0.00 0.00 24 1016.3
20260507134225 78 176 0.9 7.0 0.00 0.00 0.00 24 1016.4
20260507134104 78 175 1.7 7.0 0.00 0.00 0.00 25 1016.2
20260507134025 79 175 1.7 7.0 0.00 0.00 0.00 24 1016.4
20260507133904 79 178 1.7 7.0 0.00 0.00 0.00 24 1016.1
20260507133804 79 175 1.7 7.0 0.00 0.00 0.00 25 1016.2
20260507133704 79 176 1.7 7.0 0.00 0.00 0.00 25 1016.0
20260507133604 79 175 0.9 6.1 0.00 0.00 0.00 25 1016.3
20260507133504 79 182 0.9 6.1 0.00 0.00 0.00 25 1016.2
20260507133404 79 183 0.9 6.1 0.00 0.00 0.00 25 1016.2
20260507133304 79 185 0.9 7.0 0.00 0.00 0.00 25 1016.3
20260507133204 78 186 0.9 7.0 0.00 0.00 0.00 25 1016.3
20260507133104 78 187 1.7 7.0 0.00 0.00 0.00 26 1016.3
20260507133004 78 186 1.7 7.0 0.00 0.00 0.00 25 1016.3
20260507132904 78 189 1.7 7.0 0.00 0.00 0.00 25 1016.2
20260507132804 78 188 1.7 7.8 0.00 0.00 0.00 24 1016.1
20260507132704 78 183 1.7 7.8 0.00 0.00 0.00 25 1016.2
20260507132605 78 180 1.7 7.8 0.00 0.00 0.00 26 1016.3
20260507132504 78 176 1.7 7.8 0.00 0.00 0.00 25 1016.2
20260507132404 78 176 1.7 7.8 0.00 0.00 0.00 26 1016.3
20260507132307 78 172 1.7 7.8 0.00 0.00 0.00 25 1016.4
20260507132204 78 172 1.7 7.8 0.00 0.00 0.00 25 1016.2
20260507132104 78 175 1.7 7.8 0.00 0.00 0.00 24 1016.2
20260507132025 78 173 1.7 7.8 0.00 0.00 0.00 24 1016.2
20260507131906 79 169 1.7 7.8 0.00 0.00 0.00 24 1015.9
20260507131804 80 168 0.9 7.8 0.00 0.00 0.00 23 1016.0
20260507131704 80 171 0.9 6.1 0.00 0.00 0.00 24 1016.2
20260507131625 79 177 0.9 5.2 0.00 0.00 0.00 24 1016.0
20260507131504 79 171 0.9 7.0 0.00 0.00 0.00 24 1016.2
20260507131404 79 172 0.9 7.0 0.00 0.00 0.00 24 1016.3
20260507131304 80 176 0.9 7.0 0.00 0.00 0.00 24 1016.4
20260507131225 80 175 0.9 7.0 0.00 0.00 0.00 23 1016.2
20260507131104 80 171 0.9 7.0 0.00 0.00 0.00 22 1016.2
20260507131004 80 171 0.9 7.0 0.00 0.00 0.00 23 1016.4
20260507130904 80 172 0.9 7.0 0.00 0.00 0.00 24 1016.2
20260507130804 80 172 1.7 7.0 0.00 0.00 0.00 24 1016.5
20260507130704 79 172 1.7 7.0 0.00 0.00 0.00 24 1016.1
20260507130605 79 173 1.7 7.0 0.00 0.00 0.00 24 1016.3
20260507130504 79 178 1.7 8.7 0.00 0.00 0.00 24 1016.1
20260507130404 79 177 1.7 8.7 0.00 0.00 0.00 24 1016.3
20260507130304 79 175 1.7 8.7 0.00 0.00 0.00 24 1016.1
20260507130204 79 177 1.7 8.7 0.00 0.00 0.00 23 1016.2
20260507130125 79 173 1.7 8.7 0.00 0.00 0.00 24 1016.3
20260507130004 79 175 1.7 8.7 0.00 0.00 0.00 24 1016.3
20260507125904 79 174 1.7 8.7 0.00 0.00 0.00 24 1016.2
20260507125825 79 175 1.7 8.7 0.00 0.00 0.00 23 1016.3
20260507125704 80 176 1.7 8.7 0.00 0.00 0.00 23 1016.3
20260507125604 80 176 1.7 8.7 0.00 0.00 0.00 23 1016.5
20260507125504 79 176 1.7 8.7 0.00 0.00 0.00 24 1016.5
20260507125404 79 175 1.7 8.7 0.00 0.00 0.00 24 1016.5
20260507125306 79 174 1.7 8.7 0.00 0.00 0.00 24 1016.4
20260507125204 79 172 1.7 8.7 0.00 0.00 0.00 24 1016.5
20260507125104 80 174 1.7 7.8 0.00 0.00 0.00 23 1016.3
20260507125004 80 175 1.7 7.8 0.00 0.00 0.00 24 1016.3
20260507124904 80 177 1.7 7.8 0.00 0.00 0.00 23 1016.4
20260507124804 80 179 1.7 7.0 0.00 0.00 0.00 25 1016.6
20260507124704 80 181 0.9 7.0 0.00 0.00 0.00 24 1016.5
20260507124604 80 180 0.9 7.0 0.00 0.00 0.00 24 1016.4
20260507124504 79 178 1.7 7.0 0.00 0.00 0.00 24 1016.6
20260507124404 79 178 1.7 7.0 0.00 0.00 0.00 25 1016.4
20260507124304 79 185 1.7 9.6 0.00 0.00 0.00 24 1016.7
20260507124204 79 189 1.7 9.6 0.00 0.00 0.00 24 1016.6
20260507124104 79 193 1.7 9.6 0.00 0.00 0.00 25 1016.5
20260507124004 79 192 1.7 9.6 0.00 0.00 0.00 23 1016.7
20260507123904 79 188 1.7 9.6 0.00 0.00 0.00 23 1016.6
20260507123804 79 187 1.7 9.6 0.00 0.00 0.00 24 1016.5
20260507123704 78 186 1.7 9.6 0.00 0.00 0.00 24 1016.4
20260507123604 78 184 1.7 9.6 0.00 0.00 0.00 25 1016.7
20260507123504 78 185 1.7 9.6 0.00 0.00 0.00 24 1016.5
20260507123404 78 187 1.7 9.6 0.00 0.00 0.00 24 1016.8
20260507123305 79 179 1.7 8.7 0.00 0.00 0.00 24 1016.6
20260507123225 79 169 1.7 8.7 0.00 0.00 0.00 24 1016.6
20260507123104 79 169 1.7 8.7 0.00 0.00 0.00 24 1016.8
20260507123004 79 171 1.7 8.7 0.00 0.00 0.00 24 1016.6
20260507122904 80 172 1.7 8.7 0.00 0.00 0.00 24 1016.6
20260507122804 80 173 1.7 8.7 0.00 0.00 0.00 23 1016.6
20260507122705 80 171 1.7 8.7 0.00 0.00 0.00 24 1016.4
20260507122604 80 174 1.7 8.7 0.00 0.00 0.00 24 1016.4
20260507122504 80 173 1.7 8.7 0.00 0.00 0.00 24 1016.5
20260507122404 79 172 1.7 7.0 0.00 0.00 0.00 24 1016.5
20260507122307 80 182 1.7 7.0 0.00 0.00 0.00 23 1016.7
20260507122204 79 184 1.7 7.8 0.00 0.00 0.00 25 1016.8
20260507122104 79 185 1.7 7.8 0.00 0.00 0.00 24 1016.6
20260507122004 79 184 1.7 7.8 0.00 0.00 0.00 24 1016.4
20260507121904 79 188 1.7 7.8 0.00 0.00 0.00 24 1016.4
20260507121804 79 183 1.7 7.8 0.00 0.00 0.00 24 1016.7
20260507121704 79 180 1.7 7.8 0.00 0.00 0.00 25 1016.7
20260507121604 79 179 1.7 7.8 0.00 0.00 0.00 24 1016.6
20260507121525 79 182 1.7 7.8 0.00 0.00 0.00 24 1016.8
20260507121404 79 183 1.7 7.8 0.00 0.00 0.00 24 1016.8
20260507121325 79 179 1.7 7.8 0.00 0.00 0.00 25 1016.7
20260507121204 80 184 1.7 7.8 0.00 0.00 0.00 23 1016.8
20260507121104 80 185 1.7 7.8 0.00 0.00 0.00 24 1017.0
20260507121004 79 185 1.7 7.8 0.00 0.00 0.00 24 1016.7
20260507120904 79 180 1.7 7.8 0.00 0.00 0.00 24 1016.7
20260507120804 79 180 1.7 7.8 0.00 0.00 0.00 24 1016.8
20260507120725 79 181 1.7 7.8 0.00 0.00 0.00 23 1016.7
20260507120625 79 185 1.7 7.8 0.00 0.00 0.00 24 1016.8
20260507120504 79 182 1.7 7.8 0.00 0.00 0.00 24 1016.5
20260507120425 79 183 1.7 7.8 0.00 0.00 0.00 25 1017.0
20260507120304 79 185 1.7 7.8 0.00 0.00 0.00 24 1016.7
20260507120225 79 181 1.7 7.8 0.00 0.00 0.00 23 1016.8
20260507120104 80 181 0.9 6.1 0.00 0.00 0.00 23 1016.8
20260507120025 80 179 0.9 6.1 0.00 0.00 0.00 24 1016.7
20260507115904 80 190 0.9 7.8 0.00 0.00 0.00 24 1016.9
20260507115804 80 198 0.9 7.8 0.00 0.00 0.00 24 1016.9
20260507115704 80 198 0.9 7.8 0.00 0.00 0.00 24 1016.8
20260507115604 80 191 1.7 7.8 0.00 0.00 0.00 24 1016.7
20260507115504 79 192 1.7 7.8 0.00 0.00 0.00 24 1016.7
20260507115404 79 191 1.7 7.8 0.00 0.00 0.00 23 1016.9
20260507115307 79 188 1.7 7.8 0.00 0.00 0.00 24 1016.8
20260507115204 79 187 1.7 7.8 0.00 0.00 0.00 24 1016.9
20260507115125 79 184 1.7 7.8 0.00 0.00 0.00 24 1016.8
20260507115004 79 188 1.7 7.8 0.00 0.00 0.00 24 1016.9
20260507114925 79 185 1.7 7.8 0.00 0.00 0.00 26 1017.1
20260507114804 79 181 1.7 7.8 0.00 0.00 0.00 25 1016.9
20260507114704 79 179 1.7 7.8 0.00 0.00 0.00 25 1016.9
20260507114604 80 182 1.7 7.8 0.00 0.00 0.00 25 1016.8
20260507114504 80 180 1.7 7.8 0.00 0.00 0.00 25 1016.9
20260507114404 79 180 1.7 7.8 0.00 0.00 0.00 26 1017.0
20260507114304 79 187 1.7 7.8 0.00 0.00 0.00 26 1017.1
20260507114204 79 184 1.7 8.7 0.00 0.00 0.00 25 1017.0
20260507114104 79 178 1.7 8.7 0.00 0.00 0.00 25 1017.1
20260507114004 79 176 1.7 8.7 0.00 0.00 0.00 26 1017.0
20260507113904 80 170 1.7 8.7 0.00 0.00 0.00 25 1016.9
20260507113804 80 179 1.7 8.7 0.00 0.00 0.00 25 1016.7
20260507113725 80 181 1.7 8.7 0.00 0.00 0.00 25 1016.9
20260507113604 79 183 1.7 8.7 0.00 0.00 0.00 26 1016.9
20260507113504 79 184 1.7 8.7 0.00 0.00 0.00 26 1016.9
20260507113404 79 183 1.7 8.7 0.00 0.00 0.00 26 1016.7
20260507113325 79 181 1.7 8.7 0.00 0.00 0.00 25 1017.1
20260507113225 79 178 1.7 8.7 0.00 0.00 0.00 25 1016.9
20260507113125 79 185 1.7 8.7 0.00 0.00 0.00 25 1017.1
20260507113004 79 195 0.9 8.7 0.00 0.00 0.00 26 1016.9
20260507112904 79 202 0.9 8.7 0.00 0.00 0.00 25 1016.9
20260507112804 79 196 0.9 8.7 0.00 0.00 0.00 25 1016.8
20260507112704 80 189 0.9 7.8 0.00 0.00 0.00 25 1016.9
20260507112625 80 189 0.9 7.8 0.00 0.00 0.00 24 1017.0
20260507112504 80 185 0.9 7.8 0.00 0.00 0.00 24 1017.1
20260507112404 80 183 0.9 7.8 0.00 0.00 0.00 24 1017.0
20260507112306 80 182 0.9 7.8 0.00 0.00 0.00 25 1016.9
20260507112204 80 179 0.9 7.8 0.00 0.00 0.00 25 1016.9
20260507112104 80 176 0.9 7.8 0.00 0.00 0.00 25 1017.0
20260507112004 80 173 1.7 7.8 0.00 0.00 0.00 25 1017.1
20260507111905 79 172 1.7 7.8 0.00 0.00 0.00 26 1016.8
20260507111804 79 168 1.7 7.8 0.00 0.00 0.00 25 1017.0
20260507111704 79 168 1.7 7.8 0.00 0.00 0.00 25 1017.1
20260507111604 79 169 1.7 7.8 0.00 0.00 0.00 25 1016.8
20260507111506 79 169 1.7 8.7 0.00 0.00 0.00 25 1017.1
20260507111425 79 170 1.7 8.7 0.00 0.00 0.00 25 1016.8
20260507111304 79 171 1.7 8.7 0.00 0.00 0.00 25 1016.9
20260507111204 79 177 1.7 8.7 0.00 0.00 0.00 25 1017.0
20260507111104 79 179 1.7 9.6 0.00 0.00 0.00 25 1017.2
20260507111004 79 188 1.7 9.6 0.00 0.00 0.00 24 1017.1
20260507110904 79 188 1.7 9.6 0.00 0.00 0.00 25 1017.0
20260507110804 79 191 1.7 9.6 0.00 0.00 0.00 24 1016.9
20260507110725 79 191 1.7 9.6 0.00 0.00 0.00 23 1016.8
20260507110604 79 197 1.7 9.6 0.00 0.00 0.00 24 1017.0
20260507110504 79 201 1.7 9.6 0.00 0.00 0.00 24 1017.1
20260507110425 79 203 0.9 9.6 0.00 0.00 0.00 26 1016.9
20260507110304 79 194 1.7 9.6 0.00 0.00 0.00 25 1016.7
20260507110204 79 190 1.7 9.6 0.00 0.00 0.00 25 1017.0
20260507110104 80 187 1.7 7.8 0.00 0.00 0.00 25 1017.0
20260507110004 79 183 1.7 7.8 0.00 0.00 0.00 24 1016.8
20260507105904 79 184 1.7 8.7 0.00 0.00 0.00 25 1017.0
20260507105804 79 183 1.7 8.7 0.00 0.00 0.00 26 1016.9
20260507105704 79 180 1.7 8.7 0.00 0.00 0.00 25 1017.0
20260507105604 79 173 1.7 8.7 0.00 0.00 0.00 24 1016.8
20260507105504 79 171 1.7 8.7 0.00 0.00 0.00 24 1016.9
20260507105425 79 171 1.7 8.7 0.00 0.00 0.00 24 1017.1
20260507105306 79 172 1.7 8.7 0.00 0.00 0.00 24 1017.0
20260507105204 79 178 1.7 8.7 0.00 0.00 0.00 25 1017.0
20260507105104 79 188 1.7 9.6 0.00 0.00 0.00 25 1016.7
20260507105025 79 187 1.7 9.6 0.00 0.00 0.00 26 1016.9
20260507104904 78 192 2.6 9.6 0.00 0.00 0.00 26 1016.9
20260507104804 78 194 2.6 9.6 0.00 0.00 0.00 25 1017.0
20260507104704 78 197 2.6 9.6 0.00 0.00 0.00 25 1017.0
20260507104625 78 195 2.6 9.6 0.00 0.00 0.00 25 1017.1
20260507104525 78 198 2.6 9.6 0.00 0.00 0.00 26 1016.8
20260507104404 78 200 2.6 9.6 0.00 0.00 0.00 25 1017.2
20260507104305 79 202 1.7 9.6 0.00 0.00 0.00 26 1017.2
20260507104204 79 202 1.7 9.6 0.00 0.00 0.00 26 1017.0
20260507104125 79 195 1.7 9.6 0.00 0.00 0.00 25 1016.9
20260507104004 80 192 1.7 9.6 0.00 0.00 0.00 25 1016.9
20260507103925 80 188 1.7 9.6 0.00 0.00 0.00 25 1016.9
20260507103804 80 184 0.9 7.0 0.00 0.00 0.00 26 1017.1
20260507103704 79 182 1.7 7.0 0.00 0.00 0.00 25 1016.8
20260507103604 79 182 0.9 7.0 0.00 0.00 0.00 26 1017.0
20260507103504 79 180 1.7 7.0 0.00 0.00 0.00 26 1017.0
20260507103404 79 182 1.7 7.0 0.00 0.00 0.00 26 1017.1
20260507103304 79 186 1.7 9.6 0.00 0.00 0.00 26 1017.0
20260507103204 79 186 1.7 9.6 0.00 0.00 0.00 25 1017.2
20260507103104 79 185 1.7 9.6 0.00 0.00 0.00 25 1017.2
20260507103025 79 179 1.7 9.6 0.00 0.00 0.00 25 1017.0
20260507102904 79 187 1.7 9.6 0.00 0.00 0.00 25 1017.1
20260507102804 78 185 1.7 9.6 0.00 0.00 0.00 26 1016.9
20260507102704 78 184 1.7 9.6 0.00 0.00 0.00 26 1017.3
20260507102625 78 184 1.7 9.6 0.00 0.00 0.00 25 1017.1
20260507102504 78 184 1.7 9.6 0.00 0.00 0.00 25 1017.2
20260507102404 79 179 1.7 9.6 0.00 0.00 0.00 26 1017.2
20260507102306 79 165 1.7 6.1 0.00 0.00 0.00 26 1017.0
20260507102204 79 162 1.7 6.1 0.00 0.00 0.00 26 1017.2
20260507102104 79 162 1.7 6.1 0.00 0.00 0.00 26 1016.9
20260507102025 79 165 1.7 8.7 0.00 0.00 0.00 28 1017.2
20260507101904 79 159 1.7 8.7 0.00 0.00 0.00 27 1017.0
20260507101825 79 162 1.7 8.7 0.00 0.00 0.00 28 1017.2
20260507101725 79 164 1.7 8.7 0.00 0.00 0.00 27 1017.2
20260507101604 79 168 1.7 8.7 0.00 0.00 0.00 29 1017.2
20260507101504 79 168 1.7 8.7 0.00 0.00 0.00 27 1017.5
20260507101404 79 168 1.7 8.7 0.00 0.00 0.00 26 1017.0
20260507101304 78 178 1.7 8.7 0.00 0.00 0.00 27 1017.2
20260507101204 78 175 1.7 8.7 0.00 0.00 0.00 27 1017.3
20260507101104 78 175 1.7 8.7 0.00 0.00 0.00 27 1017.3
20260507101004 78 179 1.7 7.0 0.00 0.00 0.00 28 1017.4
20260507100905 78 176 1.7 7.0 0.00 0.00 0.00 28 1017.1
20260507100825 79 171 1.7 7.0 0.00 0.00 0.00 27 1017.1
20260507100704 79 174 1.7 7.0 0.00 0.00 0.00 27 1017.1
20260507100604 79 170 1.7 7.0 0.00 0.00 0.00 27 1017.1
20260507100504 78 175 1.7 7.0 0.00 0.00 0.00 27 1017.3
20260507100425 78 174 1.7 7.0 0.00 0.00 0.00 27 1017.2
20260507100325 78 177 1.7 7.0 0.00 0.00 0.00 27 1017.3
20260507100204 78 184 1.7 7.0 0.00 0.00 0.00 27 1017.4
20260507100104 78 185 1.7 7.0 0.00 0.00 0.00 26 1017.2
20260507100004 78 188 1.7 7.8 0.00 0.00 0.00 26 1017.3
20260507095904 78 193 1.7 7.8 0.00 0.00 0.00 26 1017.3
20260507095825 78 196 1.7 11.3 0.00 0.00 0.00 27 1017.3
20260507095604 78 207 2.6 11.3 0.00 0.00 0.00 27 1017.1
20260507095504 78 205 2.6 11.3 0.00 0.00 0.00 27 1017.2
20260507095404 78 210 2.6 11.3 0.00 0.00 0.00 27 1017.2
20260507095306 78 203 1.7 11.3 0.00 0.00 0.00 26 1017.3
20260507095204 78 202 1.7 11.3 0.00 0.00 0.00 27 1017.4
20260507095104 78 201 2.6 11.3 0.00 0.00 0.00 27 1017.3
20260507095004 78 200 1.7 11.3 0.00 0.00 0.00 27 1017.3
20260507094925 78 196 1.7 11.3 0.00 0.00 0.00 26 1017.5
20260507094804 78 188 1.7 7.8 0.00 0.00 0.00 27 1017.4
20260507094704 78 180 1.7 8.7 0.00 0.00 0.00 26 1017.5
20260507094604 78 178 1.7 8.7 0.00 0.00 0.00 27 1017.3
20260507094504 78 182 1.7 8.7 0.00 0.00 0.00 27 1017.4
20260507094425 78 181 1.7 8.7 0.00 0.00 0.00 27 1017.4
20260507094304 78 176 1.7 8.7 0.00 0.00 0.00 27 1017.2
20260507094225 78 175 1.7 8.7 0.00 0.00 0.00 27 1017.2
20260507094104 78 177 2.6 8.7 0.00 0.00 0.00 27 1017.3
20260507094004 77 179 2.6 8.7 0.00 0.00 0.00 27 1017.3
20260507093925 77 182 2.6 8.7 0.00 0.00 0.00 28 1017.4
20260507093804 77 185 2.6 8.7 0.00 0.00 0.00 27 1017.3
20260507093704 77 192 1.7 8.7 0.00 0.00 0.00 28 1017.3
20260507093604 77 189 1.7 8.7 0.00 0.00 0.00 27 1017.3
20260507093504 77 183 2.6 8.7 0.00 0.00 0.00 28 1017.3
20260507093404 77 182 2.6 8.7 0.00 0.00 0.00 28 1017.2
20260507093304 77 192 2.6 8.7 0.00 0.00 0.00 27 1017.4
20260507093204 77 198 2.6 8.7 0.00 0.00 0.00 27 1017.5
20260507093104 77 199 2.6 8.7 0.00 0.00 0.00 27 1017.6
20260507093025 77 196 1.7 8.7 0.00 0.00 0.00 28 1017.3
20260507092904 77 190 1.7 7.8 0.00 0.00 0.00 28 1017.3
20260507092804 77 189 1.7 7.8 0.00 0.00 0.00 27 1017.4
20260507092704 77 184 1.7 7.8 0.00 0.00 0.00 28 1017.5
20260507092604 77 184 1.7 7.8 0.00 0.00 0.00 27 1017.2
20260507092504 78 190 1.7 7.8 0.00 0.00 0.00 28 1017.2
20260507092404 78 194 1.7 7.8 0.00 0.00 0.00 27 1017.2
20260507092325 78 185 1.7 7.8 0.00 0.00 0.00 27 1017.3
20260507092225 78 183 0.9 7.8 0.00 0.00 0.00 28 1017.3
20260507092104 78 179 1.7 7.8 0.00 0.00 0.00 27 1017.3
20260507092004 78 179 1.7 7.8 0.00 0.00 0.00 27 1017.1
20260507091925 78 178 1.7 7.8 0.00 0.00 0.00 27 1017.4
20260507091804 77 180 1.7 7.8 0.00 0.00 0.00 28 1017.3
20260507091704 77 178 1.7 7.8 0.00 0.00 0.00 28 1017.2
20260507091604 77 175 1.7 7.8 0.00 0.00 0.00 28 1017.3
20260507091504 78 173 1.7 7.8 0.00 0.00 0.00 27 1017.4
20260507091404 78 167 1.7 7.8 0.00 0.00 0.00 27 1017.4
20260507091325 78 164 1.7 7.8 0.00 0.00 0.00 28 1017.6
20260507091204 77 163 1.7 7.8 0.00 0.00 0.00 28 1017.5
20260507091104 77 166 1.7 7.8 0.00 0.00 0.00 28 1017.4
20260507091025 77 170 1.7 7.8 0.00 0.00 0.00 27 1017.6
20260507090904 77 170 1.7 7.8 0.00 0.00 0.00 27 1017.3
20260507090804 78 170 1.7 7.8 0.00 0.00 0.00 28 1017.4
20260507090725 78 167 1.7 7.8 0.00 0.00 0.00 29 1017.4
20260507090604 77 174 1.7 7.8 0.00 0.00 0.00 27 1017.4
20260507090504 77 177 1.7 7.8 0.00 0.00 0.00 29 1017.5
20260507090404 77 180 1.7 7.8 0.00 0.00 0.00 29 1017.5
20260507090325 77 183 1.7 7.0 0.00 0.00 0.00 28 1017.2
20260507090204 77 194 1.7 12.2 0.00 0.00 0.00 28 1017.4
20260507090105 77 198 1.7 12.2 0.00 0.00 0.00 28 1017.4
20260507090005 77 200 1.7 12.2 0.00 0.00 0.00 28 1017.4
20260507085904 77 201 0.9 12.2 0.00 0.00 0.00 27 1017.1
20260507085804 77 202 0.9 12.2 0.00 0.00 0.00 28 1017.4
20260507085704 77 205 1.7 12.2 0.00 0.00 0.00 28 1017.1
20260507085604 76 196 1.7 12.2 0.00 0.00 0.00 29 1017.2
20260507085504 76 191 1.7 12.2 0.00 0.00 0.00 29 1017.3
20260507085425 76 190 1.7 12.2 0.00 0.00 0.00 30 1017.4
20260507085306 77 184 1.7 12.2 0.00 0.00 0.00 29 1017.3
20260507085225 77 172 1.7 12.2 0.00 0.00 0.00 28 1017.4
20260507085104 77 164 1.7 7.0 0.00 0.00 0.00 28 1017.5
20260507085025 77 165 1.7 7.0 0.00 0.00 0.00 28 1017.3
20260507084904 76 171 1.7 8.7 0.00 0.00 0.00 29 1017.2
20260507084804 76 170 1.7 8.7 0.00 0.00 0.00 29 1017.2
20260507084704 76 165 2.6 8.7 0.00 0.00 0.00 29 1017.3
20260507084604 76 166 2.6 8.7 0.00 0.00 0.00 29 1017.6
20260507084504 76 163 2.6 8.7 0.00 0.00 0.00 29 1017.5
20260507084404 76 161 2.6 8.7 0.00 0.00 0.00 28 1017.4
20260507084325 76 161 2.6 8.7 0.00 0.00 0.00 29 1017.4
20260507084204 76 167 1.7 8.7 0.00 0.00 0.00 29 1017.4
20260507084104 76 168 1.7 8.7 0.00 0.00 0.00 29 1017.5
20260507084025 76 166 2.6 8.7 0.00 0.00 0.00 29 1017.4
20260507083904 76 162 1.7 7.0 0.00 0.00 0.00 29 1017.5
20260507083804 76 165 1.7 7.8 0.00 0.00 0.00 29 1017.4
20260507083704 76 167 1.7 7.8 0.00 0.00 0.00 28 1017.2
20260507083604 76 170 1.7 7.8 0.00 0.00 0.00 29 1017.4
20260507083504 76 177 1.7 7.8 0.00 0.00 0.00 29 1017.5
20260507083404 76 181 0.9 7.8 0.00 0.00 0.00 28 1017.4
20260507083325 76 180 1.7 7.8 0.00 0.00 0.00 29 1017.5
20260507083204 77 179 1.7 7.8 0.00 0.00 0.00 28 1017.5
20260507083125 77 179 1.7 7.8 0.00 0.00 0.00 28 1017.6
20260507083004 77 177 1.7 7.8 0.00 0.00 0.00 29 1017.5
20260507082904 77 176 1.7 7.8 0.00 0.00 0.00 29 1017.5
20260507082804 76 176 1.7 7.0 0.00 0.00 0.00 29 1017.5
20260507082704 76 177 1.7 7.0 0.00 0.00 0.00 29 1017.3
20260507082625 76 177 1.7 7.0 0.00 0.00 0.00 29 1017.4
20260507082504 76 173 1.7 7.0 0.00 0.00 0.00 30 1017.4
20260507082404 76 175 1.7 7.0 0.00 0.00 0.00 29 1017.5
20260507082306 77 172 1.7 7.0 0.00 0.00 0.00 29 1017.4
20260507082204 77 173 1.7 7.0 0.00 0.00 0.00 29 1017.3
20260507082104 77 174 1.7 7.0 0.00 0.00 0.00 30 1017.4
20260507082004 77 175 1.7 7.8 0.00 0.00 0.00 29 1017.2
20260507081904 77 175 1.7 7.8 0.00 0.00 0.00 29 1017.4
20260507081804 77 174 1.7 7.8 0.00 0.00 0.00 29 1017.0
20260507081725 76 175 1.7 7.8 0.00 0.00 0.00 30 1017.4
20260507081604 76 176 1.7 7.8 0.00 0.00 0.00 30 1017.4
20260507081525 76 176 1.7 7.8 0.00 0.00 0.00 29 1017.3
20260507081404 76 170 1.7 7.8 0.00 0.00 0.00 29 1017.2
20260507081325 76 172 1.7 7.8 0.00 0.00 0.00 28 1017.3
20260507081204 76 169 0.9 7.8 0.00 0.00 0.00 30 1017.4
20260507081104 76 168 1.7 7.8 0.00 0.00 0.00 29 1017.4
20260507081004 76 169 1.7 7.8 0.00 0.00 0.00 29 1017.6
20260507080904 76 171 0.9 7.8 0.00 0.00 0.00 30 1017.6
20260507080825 76 171 0.9 7.8 0.00 0.00 0.00 31 1017.6
20260507080704 76 166 0.9 7.8 0.00 0.00 0.00 30 1017.5
20260507080604 76 168 0.9 6.1 0.00 0.00 0.00 29 1017.3
20260507080504 76 170 0.9 6.1 0.00 0.00 0.00 30 1017.3
20260507080404 76 170 0.9 6.1 0.00 0.00 0.00 30 1017.5
20260507080304 76 170 0.9 6.1 0.00 0.00 0.00 30 1017.4
20260507080204 76 171 0.9 6.1 0.00 0.00 0.00 29 1017.3
20260507080104 76 176 0.9 6.1 0.00 0.00 0.00 29 1017.5
20260507080004 76 173 0.9 6.1 0.00 0.00 0.00 30 1017.5
20260507075925 76 173 0.9 6.1 0.00 0.00 0.00 30 1017.5
20260507075804 76 181 0.9 7.0 0.00 0.00 0.00 30 1017.4
20260507075704 76 184 0.9 7.0 0.00 0.00 0.00 29 1017.3
20260507075604 76 187 0.9 7.0 0.00 0.00 0.00 29 1017.3
20260507075504 76 194 0.9 7.0 0.00 0.00 0.00 30 1017.3
20260507075404 75 193 0.9 7.0 0.00 0.00 0.00 30 1017.4
20260507075306 75 193 0.9 7.0 0.00 0.00 0.00 30 1017.2
20260507075204 75 197 1.7 7.0 0.00 0.00 0.00 29 1017.3
20260507075104 75 198 1.7 7.0 0.00 0.00 0.00 30 1017.3
20260507075004 74 201 1.7 9.6 0.00 0.00 0.00 30 1017.4
20260507074904 74 195 1.7 9.6 0.00 0.00 0.00 30 1017.5
20260507074804 74 192 1.7 9.6 0.00 0.00 0.00 30 1017.7
20260507074704 74 190 1.7 9.6 0.00 0.00 0.00 30 1017.5
20260507074604 74 189 1.7 9.6 0.00 0.00 0.00 30 1017.4
20260507074504 74 186 1.7 9.6 0.00 0.00 0.00 30 1017.3
20260507074404 74 192 1.7 9.6 0.00 0.00 0.00 30 1017.5
20260507074304 75 192 1.7 9.6 0.00 0.00 0.00 30 1017.6
20260507074204 75 190 1.7 9.6 0.00 0.00 0.00 30 1017.4
20260507074104 75 190 1.7 9.6 0.00 0.00 0.00 30 1017.3
20260507074004 75 193 1.7 7.0 0.00 0.00 0.00 30 1017.5
20260507073904 75 197 1.7 7.0 0.00 0.00 0.00 31 1017.6
20260507073804 75 198 1.7 7.0 0.00 0.00 0.00 29 1017.5
20260507073704 74 200 1.7 7.0 0.00 0.00 0.00 30 1017.3
20260507073625 74 202 0.9 7.0 0.00 0.00 0.00 31 1017.3
20260507073504 74 206 0.9 7.0 0.00 0.00 0.00 30 1017.3
20260507073404 74 201 0.9 7.0 0.00 0.00 0.00 30 1017.6